| time (UTC) | temp C | wind direction | speed KPH | gust KPH | rain 1hr cm | rain 24hr cm | rain mn cm | humidity % | barometer mb |
| 20260503004809 | 10 | 324 | 11.3 | 19.3 | 0.00 | 0.00 | 0.00 | 55 | 1013.9 |
| 20260503004708 | 10 | 311 | 11.3 | 19.3 | 0.00 | 0.00 | 0.00 | 55 | 1013.7 |
| 20260503004608 | 10 | 319 | 11.3 | 17.7 | 0.00 | 0.00 | 0.00 | 55 | 1013.7 |
| 20260503004509 | 10 | 315 | 11.3 | 17.7 | 0.00 | 0.00 | 0.00 | 55 | 1013.8 |
| 20260503004410 | 10 | 297 | 11.3 | 17.7 | 0.00 | 0.00 | 0.00 | 55 | 1013.7 |
| 20260503004309 | 10 | 304 | 11.3 | 17.7 | 0.00 | 0.00 | 0.00 | 55 | 1013.5 |
| 20260503004204 | 10 | 327 | 11.3 | 17.7 | 0.00 | 0.00 | 0.00 | 55 | 1013.7 |
| 20260503004105 | 10 | 296 | 12.9 | 16.1 | 0.00 | 0.00 | 0.00 | 55 | 1013.7 |
| 20260503004004 | 10 | 304 | 12.9 | 17.7 | 0.00 | 0.00 | 0.00 | 55 | 1013.5 |
| 20260503003904 | 10 | 292 | 12.9 | 17.7 | 0.00 | 0.00 | 0.00 | 55 | 1013.5 |
| 20260503003805 | 10 | 298 | 12.9 | 20.9 | 0.00 | 0.00 | 0.00 | 54 | 1013.7 |
| 20260503003705 | 10 | 304 | 12.9 | 24.1 | 0.00 | 0.00 | 0.00 | 54 | 1013.7 |
| 20260503003606 | 10 | 313 | 12.9 | 24.1 | 0.00 | 0.00 | 0.00 | 54 | 1013.7 |
| 20260503003502 | 10 | 292 | 14.5 | 24.1 | 0.00 | 0.00 | 0.00 | 54 | 1013.5 |
| 20260503003402 | 10 | 286 | 14.5 | 24.1 | 0.00 | 0.00 | 0.00 | 54 | 1013.5 |
| 20260503003302 | 10 | 308 | 14.5 | 24.1 | 0.00 | 0.00 | 0.00 | 53 | 1013.4 |
| 20260503003203 | 10 | 275 | 14.5 | 24.1 | 0.00 | 0.00 | 0.00 | 53 | 1013.5 |
| 20260503003103 | 10 | 313 | 14.5 | 24.1 | 0.00 | 0.00 | 0.00 | 54 | 1013.4 |
| 20260503003002 | 10 | 309 | 14.5 | 24.1 | 0.00 | 0.00 | 0.00 | 53 | 1013.4 |
| 20260503002902 | 10 | 309 | 14.5 | 24.1 | 0.00 | 0.00 | 0.00 | 53 | 1013.4 |
| 20260503002804 | 10 | 301 | 14.5 | 24.1 | 0.00 | 0.00 | 0.00 | 53 | 1013.3 |
| 20260503002703 | 10 | 319 | 14.5 | 20.9 | 0.00 | 0.00 | 0.00 | 53 | 1013.3 |
| 20260503002602 | 10 | 298 | 14.5 | 20.9 | 0.00 | 0.00 | 0.00 | 53 | 1013.3 |
| 20260503002456 | 10 | 317 | 14.5 | 20.9 | 0.00 | 0.00 | 0.00 | 53 | 1013.3 |
| 20260503002358 | 10 | 306 | 14.5 | 20.9 | 0.00 | 0.00 | 0.00 | 53 | 1013.3 |
| 20260503002259 | 10 | 315 | 14.5 | 22.5 | 0.00 | 0.00 | 0.00 | 53 | 1013.2 |
| 20260503002157 | 10 | 327 | 14.5 | 22.5 | 0.00 | 0.00 | 0.00 | 53 | 1013.3 |
| 20260503002056 | 10 | 307 | 14.5 | 22.5 | 0.00 | 0.00 | 0.00 | 53 | 1013.3 |
| 20260503001954 | 10 | 318 | 16.1 | 22.5 | 0.00 | 0.00 | 0.00 | 53 | 1013.2 |
| 20260503001854 | 10 | 321 | 16.1 | 22.5 | 0.00 | 0.00 | 0.00 | 52 | 1013.2 |
| 20260503001754 | 10 | 317 | 16.1 | 24.1 | 0.00 | 0.00 | 0.00 | 52 | 1013.3 |
| 20260503001655 | 10 | 312 | 16.1 | 24.1 | 0.00 | 0.00 | 0.00 | 52 | 1013.2 |
| 20260503001554 | 10 | 299 | 16.1 | 24.1 | 0.00 | 0.00 | 0.00 | 52 | 1013.1 |
| 20260503001455 | 10 | 311 | 16.1 | 24.1 | 0.00 | 0.00 | 0.00 | 51 | 1013.1 |
| 20260503001354 | 10 | 320 | 16.1 | 24.1 | 0.00 | 0.00 | 0.00 | 51 | 1013.2 |
| 20260503001252 | 10 | 283 | 16.1 | 24.1 | 0.00 | 0.00 | 0.00 | 52 | 1013.0 |
| 20260503001152 | 10 | 317 | 16.1 | 24.1 | 0.00 | 0.00 | 0.00 | 51 | 1013.1 |
| 20260503001052 | 10 | 331 | 16.1 | 24.1 | 0.00 | 0.00 | 0.00 | 52 | 1013.1 |
| 20260503000951 | 10 | 342 | 16.1 | 24.1 | 0.00 | 0.00 | 0.00 | 51 | 1013.0 |
| 20260503000850 | 10 | 323 | 14.5 | 24.1 | 0.00 | 0.00 | 0.00 | 52 | 1013.1 |
| 20260503000748 | 10 | 316 | 16.1 | 22.5 | 0.00 | 0.00 | 0.00 | 51 | 1013.0 |
| 20260503000648 | 10 | 311 | 16.1 | 22.5 | 0.00 | 0.00 | 0.00 | 51 | 1013.0 |
| 20260503000548 | 10 | 316 | 16.1 | 22.5 | 0.00 | 0.00 | 0.00 | 51 | 1013.0 |
| 20260503000450 | 11 | 322 | 16.1 | 25.7 | 0.00 | 0.00 | 0.00 | 51 | 1013.1 |
| 20260503000348 | 11 | 304 | 16.1 | 25.7 | 0.00 | 0.00 | 0.00 | 51 | 1013.0 |
| 20260503000243 | 11 | 292 | 16.1 | 25.7 | 0.00 | 0.00 | 0.00 | 51 | 1013.0 |
| 20260503000142 | 11 | 310 | 16.1 | 25.7 | 0.00 | 0.00 | 0.00 | 51 | 1013.0 |
| 20260503000044 | 11 | 333 | 16.1 | 25.7 | 0.00 | 0.00 | 0.00 | 51 | 1012.9 |
| 20260502235943 | 11 | 306 | 16.1 | 25.7 | 0.00 | 0.00 | 0.00 | 51 | 1013.0 |
| 20260502235843 | 11 | 309 | 17.7 | 25.7 | 0.00 | 0.00 | 0.00 | 50 | 1012.9 |
| 20260502235738 | 11 | 302 | 17.7 | 25.7 | 0.00 | 0.00 | 0.00 | 50 | 1012.9 |
| 20260502235638 | 11 | 318 | 17.7 | 25.7 | 0.00 | 0.00 | 0.00 | 50 | 1012.9 |
| 20260502235539 | 11 | 311 | 16.1 | 25.7 | 0.00 | 0.00 | 0.00 | 50 | 1013.0 |
| 20260502235439 | 11 | 298 | 17.7 | 25.7 | 0.00 | 0.00 | 0.00 | 50 | 1012.9 |
| 20260502235339 | 11 | 293 | 17.7 | 29.0 | 0.00 | 0.00 | 0.00 | 50 | 1012.9 |
| 20260502235238 | 11 | 299 | 17.7 | 29.0 | 0.00 | 0.00 | 0.00 | 50 | 1012.9 |
| 20260502235138 | 11 | 320 | 17.7 | 29.0 | 0.00 | 0.00 | 0.00 | 50 | 1012.8 |
| 20260502235038 | 11 | 273 | 19.3 | 29.0 | 0.00 | 0.00 | 0.00 | 50 | 1012.8 |
| 20260502234938 | 11 | 338 | 19.3 | 29.0 | 0.00 | 0.00 | 0.00 | 49 | 1012.8 |
| 20260502234839 | 11 | 317 | 19.3 | 33.8 | 0.00 | 0.00 | 0.00 | 50 | 1012.8 |
| 20260502234739 | 11 | 271 | 19.3 | 33.8 | 0.00 | 0.00 | 0.00 | 50 | 1012.7 |
| 20260502234636 | 11 | 308 | 19.3 | 33.8 | 0.00 | 0.00 | 0.00 | 50 | 1012.7 |
| 20260502234534 | 11 | 345 | 19.3 | 33.8 | 0.00 | 0.00 | 0.00 | 49 | 1012.7 |
| 20260502234435 | 11 | 280 | 19.3 | 33.8 | 0.00 | 0.00 | 0.00 | 49 | 1012.6 |
| 20260502234334 | 11 | 306 | 17.7 | 33.8 | 0.00 | 0.00 | 0.00 | 49 | 1012.7 |
| 20260502234234 | 11 | 284 | 17.7 | 33.8 | 0.00 | 0.00 | 0.00 | 49 | 1012.7 |
| 20260502234135 | 11 | 299 | 17.7 | 33.8 | 0.00 | 0.00 | 0.00 | 49 | 1012.6 |
| 20260502234034 | 11 | 310 | 17.7 | 33.8 | 0.00 | 0.00 | 0.00 | 49 | 1012.5 |
| 20260502233934 | 11 | 327 | 17.7 | 33.8 | 0.00 | 0.00 | 0.00 | 49 | 1012.6 |
| 20260502233835 | 11 | 333 | 17.7 | 29.0 | 0.00 | 0.00 | 0.00 | 49 | 1012.6 |
| 20260502233734 | 11 | 338 | 17.7 | 29.0 | 0.00 | 0.00 | 0.00 | 49 | 1012.6 |
| 20260502233634 | 11 | 310 | 19.3 | 30.6 | 0.00 | 0.00 | 0.00 | 48 | 1012.5 |
| 20260502233534 | 11 | 315 | 19.3 | 30.6 | 0.00 | 0.00 | 0.00 | 49 | 1012.5 |
| 20260502233433 | 11 | 307 | 19.3 | 30.6 | 0.00 | 0.00 | 0.00 | 49 | 1012.6 |
| 20260502233332 | 11 | 338 | 19.3 | 30.6 | 0.00 | 0.00 | 0.00 | 48 | 1012.4 |
| 20260502233232 | 11 | 306 | 19.3 | 30.6 | 0.00 | 0.00 | 0.00 | 47 | 1012.5 |
| 20260502233131 | 12 | 333 | 19.3 | 30.6 | 0.00 | 0.00 | 0.00 | 47 | 1012.5 |
| 20260502233027 | 12 | 335 | 19.3 | 30.6 | 0.00 | 0.00 | 0.00 | 47 | 1012.4 |
| 20260502232926 | 12 | 306 | 19.3 | 30.6 | 0.00 | 0.00 | 0.00 | 47 | 1012.4 |
| 20260502232825 | 12 | 296 | 19.3 | 30.6 | 0.00 | 0.00 | 0.00 | 47 | 1012.4 |
| 20260502232728 | 12 | 326 | 17.7 | 29.0 | 0.00 | 0.00 | 0.00 | 47 | 1012.3 |
| 20260502232627 | 12 | 309 | 17.7 | 29.0 | 0.00 | 0.00 | 0.00 | 47 | 1012.4 |
| 20260502232527 | 12 | 319 | 16.1 | 29.0 | 0.00 | 0.00 | 0.00 | 47 | 1012.4 |
| 20260502232427 | 12 | 296 | 16.1 | 29.0 | 0.00 | 0.00 | 0.00 | 47 | 1012.4 |
| 20260502232321 | 12 | 346 | 16.1 | 29.0 | 0.00 | 0.00 | 0.00 | 47 | 1012.4 |
| 20260502232222 | 12 | 275 | 16.1 | 29.0 | 0.00 | 0.00 | 0.00 | 47 | 1012.4 |
| 20260502232121 | 12 | 344 | 16.1 | 29.0 | 0.00 | 0.00 | 0.00 | 47 | 1012.3 |
| 20260502232020 | 12 | 330 | 16.1 | 30.6 | 0.00 | 0.00 | 0.00 | 47 | 1012.4 |
| 20260502231921 | 12 | 314 | 16.1 | 30.6 | 0.00 | 0.00 | 0.00 | 47 | 1012.3 |
| 20260502231815 | 12 | 319 | 17.7 | 30.6 | 0.00 | 0.00 | 0.00 | 47 | 1012.3 |
| 20260502231715 | 12 | 327 | 17.7 | 30.6 | 0.00 | 0.00 | 0.00 | 47 | 1012.3 |
| 20260502231615 | 12 | 339 | 17.7 | 30.6 | 0.00 | 0.00 | 0.00 | 46 | 1012.2 |
| 20260502231515 | 12 | 296 | 17.7 | 30.6 | 0.00 | 0.00 | 0.00 | 46 | 1012.3 |
| 20260502231414 | 12 | 313 | 19.3 | 30.6 | 0.00 | 0.00 | 0.00 | 46 | 1012.2 |
| 20260502231310 | 12 | 278 | 19.3 | 30.6 | 0.00 | 0.00 | 0.00 | 46 | 1012.3 |
| 20260502231209 | 12 | 325 | 19.3 | 30.6 | 0.00 | 0.00 | 0.00 | 46 | 1012.2 |
| 20260502231108 | 12 | 312 | 17.7 | 30.6 | 0.00 | 0.00 | 0.00 | 46 | 1012.3 |
| 20260502231009 | 12 | 295 | 17.7 | 30.6 | 0.00 | 0.00 | 0.00 | 46 | 1012.3 |
| 20260502230908 | 12 | 294 | 17.7 | 30.6 | 0.00 | 0.00 | 0.00 | 45 | 1012.3 |
| 20260502230808 | 12 | 307 | 17.7 | 30.6 | 0.00 | 0.00 | 0.00 | 45 | 1012.2 |
| 20260502230709 | 12 | 297 | 17.7 | 30.6 | 0.00 | 0.00 | 0.00 | 45 | 1012.3 |
| 20260502230609 | 12 | 297 | 16.1 | 30.6 | 0.00 | 0.00 | 0.00 | 46 | 1012.2 |
| 20260502230508 | 12 | 292 | 16.1 | 30.6 | 0.00 | 0.00 | 0.00 | 46 | 1012.2 |
| 20260502230408 | 12 | 323 | 16.1 | 30.6 | 0.00 | 0.00 | 0.00 | 46 | 1012.2 |
| 20260502230306 | 12 | 334 | 16.1 | 30.6 | 0.00 | 0.00 | 0.00 | 46 | 1012.3 |
| 20260502230206 | 12 | 283 | 16.1 | 30.6 | 0.00 | 0.00 | 0.00 | 47 | 1012.2 |
| 20260502230106 | 12 | 302 | 14.5 | 30.6 | 0.00 | 0.00 | 0.00 | 47 | 1012.2 |
| 20260502230006 | 12 | 267 | 14.5 | 30.6 | 0.00 | 0.00 | 0.00 | 47 | 1012.2 |
| 20260502225906 | 12 | 315 | 12.9 | 25.7 | 0.00 | 0.00 | 0.00 | 47 | 1012.3 |
| 20260502225807 | 12 | 331 | 14.5 | 25.7 | 0.00 | 0.00 | 0.00 | 47 | 1012.3 |
| 20260502225706 | 12 | 298 | 16.1 | 25.7 | 0.00 | 0.00 | 0.00 | 47 | 1012.2 |
| 20260502225602 | 12 | 307 | 16.1 | 30.6 | 0.00 | 0.00 | 0.00 | 47 | 1012.2 |
| 20260502225502 | 12 | 317 | 16.1 | 30.6 | 0.00 | 0.00 | 0.00 | 48 | 1012.1 |
| 20260502225403 | 12 | 309 | 17.7 | 30.6 | 0.00 | 0.00 | 0.00 | 47 | 1012.2 |
| 20260502225304 | 12 | 312 | 17.7 | 30.6 | 0.00 | 0.00 | 0.00 | 47 | 1012.2 |
| 20260502225202 | 12 | 304 | 17.7 | 30.6 | 0.00 | 0.00 | 0.00 | 47 | 1012.1 |
| 20260502225102 | 12 | 314 | 19.3 | 30.6 | 0.00 | 0.00 | 0.00 | 47 | 1012.2 |
| 20260502225004 | 12 | 333 | 19.3 | 30.6 | 0.00 | 0.00 | 0.00 | 46 | 1012.2 |
| 20260502224902 | 12 | 320 | 20.9 | 32.2 | 0.00 | 0.00 | 0.00 | 47 | 1012.2 |
| 20260502224802 | 12 | 302 | 19.3 | 32.2 | 0.00 | 0.00 | 0.00 | 46 | 1012.1 |
| 20260502224700 | 12 | 316 | 19.3 | 32.2 | 0.00 | 0.00 | 0.00 | 46 | 1012.2 |
| 20260502224600 | 12 | 292 | 19.3 | 32.2 | 0.00 | 0.00 | 0.00 | 46 | 1012.1 |
| 20260502224500 | 12 | 320 | 19.3 | 32.2 | 0.00 | 0.00 | 0.00 | 45 | 1012.1 |
| 20260502224400 | 12 | 313 | 19.3 | 32.2 | 0.00 | 0.00 | 0.00 | 46 | 1012.1 |
| 20260502224301 | 12 | 298 | 19.3 | 32.2 | 0.00 | 0.00 | 0.00 | 46 | 1012.1 |
| 20260502224201 | 12 | 327 | 19.3 | 32.2 | 0.00 | 0.00 | 0.00 | 45 | 1012.1 |
| 20260502224100 | 12 | 286 | 19.3 | 32.2 | 0.00 | 0.00 | 0.00 | 45 | 1012.1 |
| 20260502224001 | 13 | 317 | 19.3 | 32.2 | 0.00 | 0.00 | 0.00 | 45 | 1012.1 |
| 20260502223855 | 13 | 327 | 19.3 | 32.2 | 0.00 | 0.00 | 0.00 | 45 | 1012.0 |
| 20260502223755 | 13 | 333 | 19.3 | 32.2 | 0.00 | 0.00 | 0.00 | 45 | 1012.1 |
| 20260502223655 | 13 | 311 | 20.9 | 32.2 | 0.00 | 0.00 | 0.00 | 45 | 1012.0 |
| 20260502223555 | 13 | 306 | 19.3 | 35.4 | 0.00 | 0.00 | 0.00 | 45 | 1012.1 |
| 20260502223454 | 13 | 295 | 19.3 | 35.4 | 0.00 | 0.00 | 0.00 | 45 | 1012.0 |
| 20260502223350 | 13 | 325 | 19.3 | 35.4 | 0.00 | 0.00 | 0.00 | 45 | 1012.0 |
| 20260502223251 | 13 | 339 | 19.3 | 35.4 | 0.00 | 0.00 | 0.00 | 45 | 1012.0 |
| 20260502223150 | 13 | 296 | 17.7 | 35.4 | 0.00 | 0.00 | 0.00 | 46 | 1012.0 |
| 20260502223050 | 13 | 284 | 17.7 | 35.4 | 0.00 | 0.00 | 0.00 | 44 | 1012.0 |
| 20260502222949 | 13 | 338 | 17.7 | 35.4 | 0.00 | 0.00 | 0.00 | 44 | 1011.8 |
| 20260502222850 | 13 | 327 | 17.7 | 35.4 | 0.00 | 0.00 | 0.00 | 44 | 1012.0 |
| 20260502222750 | 13 | 330 | 17.7 | 35.4 | 0.00 | 0.00 | 0.00 | 44 | 1012.0 |
| 20260502222650 | 13 | 308 | 16.1 | 35.4 | 0.00 | 0.00 | 0.00 | 44 | 1012.0 |
| 20260502222549 | 13 | 312 | 16.1 | 24.1 | 0.00 | 0.00 | 0.00 | 45 | 1012.0 |
| 20260502222450 | 13 | 328 | 17.7 | 24.1 | 0.00 | 0.00 | 0.00 | 44 | 1012.0 |
| 20260502222348 | 13 | 322 | 17.7 | 24.1 | 0.00 | 0.00 | 0.00 | 45 | 1011.8 |
| 20260502222246 | 13 | 292 | 17.7 | 24.1 | 0.00 | 0.00 | 0.00 | 45 | 1012.1 |
| 20260502222146 | 13 | 311 | 17.7 | 24.1 | 0.00 | 0.00 | 0.00 | 45 | 1011.8 |
| 20260502222048 | 13 | 314 | 17.7 | 24.1 | 0.00 | 0.00 | 0.00 | 45 | 1011.8 |
| 20260502221948 | 13 | 327 | 17.7 | 30.6 | 0.00 | 0.00 | 0.00 | 45 | 1011.8 |
| 20260502221847 | 13 | 313 | 17.7 | 30.6 | 0.00 | 0.00 | 0.00 | 45 | 1011.8 |
| 20260502221747 | 13 | 336 | 17.7 | 30.6 | 0.00 | 0.00 | 0.00 | 45 | 1012.0 |
| 20260502221644 | 13 | 342 | 17.7 | 30.6 | 0.00 | 0.00 | 0.00 | 45 | 1011.7 |
| 20260502221542 | 13 | 330 | 19.3 | 30.6 | 0.00 | 0.00 | 0.00 | 44 | 1011.7 |
| 20260502221440 | 13 | 320 | 19.3 | 30.6 | 0.00 | 0.00 | 0.00 | 45 | 1011.8 |
| 20260502221340 | 13 | 273 | 19.3 | 30.6 | 0.00 | 0.00 | 0.00 | 44 | 1011.7 |
| 20260502221241 | 13 | 284 | 19.3 | 35.4 | 0.00 | 0.00 | 0.00 | 45 | 1011.7 |
| 20260502221131 | 13 | 323 | 20.9 | 37.0 | 0.00 | 0.00 | 0.00 | 44 | 1011.6 |
| 20260502221031 | 13 | 311 | 20.9 | 37.0 | 0.00 | 0.00 | 0.00 | 45 | 1011.6 |
| 20260502220931 | 13 | 313 | 20.9 | 37.0 | 0.00 | 0.00 | 0.00 | 45 | 1011.6 |
| 20260502220830 | 13 | 318 | 19.3 | 37.0 | 0.00 | 0.00 | 0.00 | 45 | 1011.6 |
| 20260502220731 | 13 | 313 | 19.3 | 37.0 | 0.00 | 0.00 | 0.00 | 44 | 1011.6 |
| 20260502220625 | 13 | 311 | 19.3 | 37.0 | 0.00 | 0.00 | 0.00 | 44 | 1011.5 |
| 20260502220525 | 13 | 340 | 17.7 | 37.0 | 0.00 | 0.00 | 0.00 | 44 | 1011.6 |
| 20260502220425 | 13 | 273 | 17.7 | 37.0 | 0.00 | 0.00 | 0.00 | 43 | 1011.5 |
| 20260502220325 | 13 | 327 | 17.7 | 37.0 | 0.00 | 0.00 | 0.00 | 44 | 1011.5 |
| 20260502220224 | 13 | 313 | 17.7 | 37.0 | 0.00 | 0.00 | 0.00 | 44 | 1011.4 |
| 20260502220119 | 13 | 333 | 16.1 | 37.0 | 0.00 | 0.00 | 0.00 | 43 | 1011.4 |
| 20260502220018 | 13 | 296 | 16.1 | 32.2 | 0.00 | 0.00 | 0.00 | 44 | 1011.4 |
| 20260502215919 | 13 | 327 | 14.5 | 30.6 | 0.00 | 0.00 | 0.00 | 44 | 1011.4 |
| 20260502215819 | 13 | 322 | 16.1 | 30.6 | 0.00 | 0.00 | 0.00 | 44 | 1011.4 |
| 20260502215719 | 13 | 288 | 14.5 | 30.6 | 0.00 | 0.00 | 0.00 | 44 | 1011.5 |
| 20260502215611 | 14 | 336 | 16.1 | 30.6 | 0.00 | 0.00 | 0.00 | 43 | 1011.4 |
| 20260502215509 | 14 | 334 | 16.1 | 30.6 | 0.00 | 0.00 | 0.00 | 43 | 1011.4 |
| 20260502215409 | 14 | 326 | 16.1 | 30.6 | 0.00 | 0.00 | 0.00 | 44 | 1011.3 |
| 20260502215309 | 14 | 345 | 14.5 | 29.0 | 0.00 | 0.00 | 0.00 | 44 | 1011.3 |
| 20260502215208 | 14 | 293 | 12.9 | 29.0 | 0.00 | 0.00 | 0.00 | 43 | 1011.3 |
| 20260502215103 | 14 | 334 | 12.9 | 29.0 | 0.00 | 0.00 | 0.00 | 44 | 1011.3 |
| 20260502215003 | 14 | 306 | 12.9 | 24.1 | 0.00 | 0.00 | 0.00 | 45 | 1011.3 |
| 20260502214903 | 14 | 290 | 12.9 | 24.1 | 0.00 | 0.00 | 0.00 | 45 | 1011.3 |
| 20260502214802 | 14 | 323 | 12.9 | 24.1 | 0.00 | 0.00 | 0.00 | 44 | 1011.3 |
| 20260502214703 | 14 | 312 | 12.9 | 22.5 | 0.00 | 0.00 | 0.00 | 44 | 1011.3 |
| 20260502214557 | 14 | 315 | 12.9 | 22.5 | 0.00 | 0.00 | 0.00 | 44 | 1011.3 |
| 20260502214457 | 14 | 313 | 12.9 | 24.1 | 0.00 | 0.00 | 0.00 | 45 | 1011.2 |
| 20260502214357 | 14 | 313 | 12.9 | 24.1 | 0.00 | 0.00 | 0.00 | 46 | 1011.2 |
| 20260502214257 | 14 | 307 | 14.5 | 24.1 | 0.00 | 0.00 | 0.00 | 45 | 1011.1 |
| 20260502214156 | 14 | 318 | 14.5 | 24.1 | 0.00 | 0.00 | 0.00 | 46 | 1011.1 |
| 20260502214048 | 14 | 286 | 14.5 | 24.1 | 0.00 | 0.00 | 0.00 | 45 | 1011.2 |
| 20260502213948 | 14 | 281 | 14.5 | 24.1 | 0.00 | 0.00 | 0.00 | 44 | 1011.2 |
| 20260502213847 | 14 | 294 | 14.5 | 24.1 | 0.00 | 0.00 | 0.00 | 45 | 1011.1 |
| 20260502213749 | 14 | 313 | 14.5 | 24.1 | 0.00 | 0.00 | 0.00 | 44 | 1011.1 |
| 20260502213647 | 14 | 332 | 14.5 | 24.1 | 0.00 | 0.00 | 0.00 | 45 | 1011.2 |
| 20260502213541 | 14 | 306 | 14.5 | 24.1 | 0.00 | 0.00 | 0.00 | 45 | 1011.2 |
| 20260502213440 | 14 | 300 | 12.9 | 20.9 | 0.00 | 0.00 | 0.00 | 45 | 1011.1 |
| 20260502213341 | 14 | 312 | 12.9 | 20.9 | 0.00 | 0.00 | 0.00 | 45 | 1011.1 |
| 20260502213241 | 14 | 300 | 12.9 | 20.9 | 0.00 | 0.00 | 0.00 | 44 | 1011.0 |
| 20260502213140 | 14 | 332 | 12.9 | 20.9 | 0.00 | 0.00 | 0.00 | 45 | 1011.1 |
| 20260502213035 | 14 | 326 | 12.9 | 22.5 | 0.00 | 0.00 | 0.00 | 44 | 1011.0 |
| 20260502212936 | 14 | 300 | 12.9 | 22.5 | 0.00 | 0.00 | 0.00 | 45 | 1011.0 |
| 20260502212835 | 14 | 294 | 12.9 | 22.5 | 0.00 | 0.00 | 0.00 | 45 | 1011.1 |
| 20260502212734 | 14 | 349 | 12.9 | 22.5 | 0.00 | 0.00 | 0.00 | 44 | 1011.1 |
| 20260502212635 | 14 | 314 | 12.9 | 22.5 | 0.00 | 0.00 | 0.00 | 44 | 1011.0 |
| 20260502212525 | 14 | 309 | 12.9 | 22.5 | 0.00 | 0.00 | 0.00 | 45 | 1011.0 |
| 20260502212424 | 14 | 309 | 14.5 | 22.5 | 0.00 | 0.00 | 0.00 | 44 | 1011.0 |
| 20260502212325 | 14 | 349 | 12.9 | 22.5 | 0.00 | 0.00 | 0.00 | 44 | 1011.0 |
| 20260502212224 | 14 | 332 | 12.9 | 22.5 | 0.00 | 0.00 | 0.00 | 44 | 1010.9 |
| 20260502212125 | 14 | 323 | 12.9 | 22.5 | 0.00 | 0.00 | 0.00 | 44 | 1011.0 |
| 20260502212021 | 15 | 283 | 11.3 | 20.9 | 0.00 | 0.00 | 0.00 | 44 | 1011.0 |
| 20260502211919 | 14 | 322 | 11.3 | 20.9 | 0.00 | 0.00 | 0.00 | 46 | 1011.0 |
| 20260502211818 | 14 | 344 | 9.7 | 20.9 | 0.00 | 0.00 | 0.00 | 45 | 1010.9 |
| 20260502211719 | 14 | 319 | 8.0 | 20.9 | 0.00 | 0.00 | 0.00 | 44 | 1010.9 |
| 20260502211619 | 14 | 319 | 8.0 | 20.9 | 0.00 | 0.00 | 0.00 | 45 | 1010.9 |
| 20260502211516 | 14 | 318 | 6.4 | 20.9 | 0.00 | 0.00 | 0.00 | 46 | 1010.8 |
| 20260502211416 | 14 | 341 | 4.8 | 17.7 | 0.00 | 0.00 | 0.00 | 46 | 1010.9 |
| 20260502211313 | 14 | 355 | 4.8 | 9.7 | 0.00 | 0.00 | 0.00 | 47 | 1010.9 |
| 20260502211215 | 14 | 321 | 4.8 | 9.7 | 0.00 | 0.00 | 0.00 | 47 | 1010.9 |
| 20260502211112 | 14 | 325 | 4.8 | 9.7 | 0.00 | 0.00 | 0.00 | 46 | 1010.9 |
| 20260502211002 | 14 | 306 | 4.8 | 9.7 | 0.00 | 0.00 | 0.00 | 46 | 1010.9 |
| 20260502210903 | 14 | 306 | 4.8 | 9.7 | 0.00 | 0.00 | 0.00 | 46 | 1010.9 |
| 20260502210803 | 14 | 318 | 4.8 | 12.9 | 0.00 | 0.00 | 0.00 | 46 | 1010.8 |
| 20260502210702 | 14 | 315 | 4.8 | 12.9 | 0.00 | 0.00 | 0.00 | 43 | 1010.9 |
| 20260502210602 | 14 | 277 | 6.4 | 12.9 | 0.00 | 0.00 | 0.00 | 42 | 1010.9 |
| 20260502210459 | 14 | 276 | 6.4 | 16.1 | 0.00 | 0.00 | 0.00 | 45 | 1010.9 |
| 20260502210400 | 14 | 271 | 6.4 | 16.1 | 0.00 | 0.00 | 0.00 | 47 | 1010.9 |
| 20260502210300 | 14 | 271 | 8.0 | 16.1 | 0.00 | 0.00 | 0.00 | 46 | 1010.8 |
| 20260502210159 | 14 | 292 | 8.0 | 16.1 | 0.00 | 0.00 | 0.00 | 46 | 1010.9 |
| 20260502210056 | 15 | 323 | 8.0 | 16.1 | 0.00 | 0.00 | 0.00 | 45 | 1010.8 |
| 20260502205951 | 15 | 277 | 8.0 | 16.1 | 0.00 | 0.00 | 0.00 | 45 | 1010.8 |
| 20260502205849 | 15 | 297 | 8.0 | 16.1 | 0.00 | 0.00 | 0.00 | 44 | 1010.8 |
| 20260502205751 | 15 | 330 | 8.0 | 19.3 | 0.00 | 0.00 | 0.00 | 44 | 1010.8 |
| 20260502205651 | 15 | 312 | 8.0 | 19.3 | 0.00 | 0.00 | 0.00 | 42 | 1010.7 |
| 20260502205551 | 15 | 300 | 8.0 | 19.3 | 0.00 | 0.00 | 0.00 | 44 | 1010.7 |
| 20260502205441 | 15 | 286 | 8.0 | 19.3 | 0.00 | 0.00 | 0.00 | 44 | 1010.7 |
| 20260502205340 | 15 | 324 | 8.0 | 19.3 | 0.00 | 0.00 | 0.00 | 43 | 1010.8 |
| 20260502205241 | 15 | 287 | 8.0 | 19.3 | 0.00 | 0.00 | 0.00 | 43 | 1010.8 |
| 20260502205141 | 15 | 281 | 8.0 | 19.3 | 0.00 | 0.00 | 0.00 | 44 | 1010.8 |
| 20260502205041 | 15 | 336 | 6.4 | 19.3 | 0.00 | 0.00 | 0.00 | 43 | 1010.8 |
| 20260502204936 | 15 | 340 | 6.4 | 19.3 | 0.00 | 0.00 | 0.00 | 43 | 1010.7 |
| 20260502204836 | 15 | 302 | 4.8 | 16.1 | 0.00 | 0.00 | 0.00 | 44 | 1010.8 |
| 20260502204736 | 15 | 310 | 4.8 | 16.1 | 0.00 | 0.00 | 0.00 | 44 | 1010.7 |
| 20260502204637 | 15 | 14 | 4.8 | 16.1 | 0.00 | 0.00 | 0.00 | 45 | 1010.7 |
| 20260502204535 | 15 | 350 | 4.8 | 16.1 | 0.00 | 0.00 | 0.00 | 45 | 1010.7 |
| 20260502204431 | 15 | 342 | 4.8 | 16.1 | 0.00 | 0.00 | 0.00 | 45 | 1010.7 |
| 20260502204329 | 15 | 314 | 4.8 | 16.1 | 0.00 | 0.00 | 0.00 | 45 | 1010.7 |
| 20260502204229 | 15 | 341 | 3.2 | 14.5 | 0.00 | 0.00 | 0.00 | 43 | 1010.6 |
| 20260502204128 | 15 | 346 | 3.2 | 14.5 | 0.00 | 0.00 | 0.00 | 44 | 1010.6 |
| 20260502204029 | 15 | 355 | 3.2 | 14.5 | 0.00 | 0.00 | 0.00 | 44 | 1010.6 |
| 20260502203921 | 15 | 355 | 3.2 | 14.5 | 0.00 | 0.00 | 0.00 | 45 | 1010.6 |
| 20260502203818 | 15 | 262 | 3.2 | 14.5 | 0.00 | 0.00 | 0.00 | 46 | 1010.7 |
| 20260502203717 | 15 | 342 | 3.2 | 14.5 | 0.00 | 0.00 | 0.00 | 46 | 1010.7 |
| 20260502203618 | 15 | 333 | 3.2 | 14.5 | 0.00 | 0.00 | 0.00 | 44 | 1010.7 |
| 20260502203518 | 15 | 5 | 1.6 | 8.0 | 0.00 | 0.00 | 0.00 | 44 | 1010.7 |
| 20260502203412 | 15 | 355 | 1.6 | 6.4 | 0.00 | 0.00 | 0.00 | 43 | 1010.7 |
| 20260502203312 | 15 | 5 | 1.6 | 6.4 | 0.00 | 0.00 | 0.00 | 43 | 1010.7 |
| 20260502203213 | 15 | 10 | 0.0 | 6.4 | 0.00 | 0.00 | 0.00 | 44 | 1010.8 |
| 20260502203112 | 15 | 14 | 0.0 | 3.2 | 0.00 | 0.00 | 0.00 | 43 | 1010.7 |
| 20260502203013 | 15 | 14 | 0.0 | 3.2 | 0.00 | 0.00 | 0.00 | 44 | 1010.7 |
| 20260502202912 | 15 | 13 | 0.0 | 3.2 | 0.00 | 0.00 | 0.00 | 42 | 1010.8 |
| 20260502202811 | 15 | 10 | 0.0 | 3.2 | 0.00 | 0.00 | 0.00 | 42 | 1010.7 |
| 20260502202710 | 15 | 348 | 0.0 | 3.2 | 0.00 | 0.00 | 0.00 | 44 | 1010.8 |
| 20260502202609 | 15 | 345 | 0.0 | 3.2 | 0.00 | 0.00 | 0.00 | 43 | 1010.7 |
| 20260502202506 | 15 | 318 | 1.6 | 4.8 | 0.00 | 0.00 | 0.00 | 45 | 1010.8 |
| 20260502202400 | 15 | 327 | 1.6 | 8.0 | 0.00 | 0.00 | 0.00 | 43 | 1010.8 |
| 20260502202301 | 15 | 279 | 1.6 | 8.0 | 0.00 | 0.00 | 0.00 | 43 | 1010.9 |
| 20260502202201 | 15 | 355 | 3.2 | 11.3 | 0.00 | 0.00 | 0.00 | 42 | 1010.8 |
| 20260502202059 | 15 | 311 | 3.2 | 11.3 | 0.00 | 0.00 | 0.00 | 45 | 1010.8 |
| 20260502201957 | 15 | 337 | 3.2 | 11.3 | 0.00 | 0.00 | 0.00 | 44 | 1010.9 |
| 20260502201851 | 15 | 337 | 3.2 | 14.5 | 0.00 | 0.00 | 0.00 | 44 | 1010.8 |
| 20260502201751 | 15 | 336 | 4.8 | 14.5 | 0.00 | 0.00 | 0.00 | 42 | 1010.9 |
| 20260502201650 | 15 | 336 | 4.8 | 14.5 | 0.00 | 0.00 | 0.00 | 43 | 1010.8 |
| 20260502201550 | 15 | 350 | 6.4 | 14.5 | 0.00 | 0.00 | 0.00 | 44 | 1010.8 |
| 20260502201450 | 15 | 355 | 6.4 | 14.5 | 0.00 | 0.00 | 0.00 | 45 | 1010.8 |
| 20260502201347 | 15 | 295 | 6.4 | 14.5 | 0.00 | 0.00 | 0.00 | 44 | 1010.8 |
| 20260502201247 | 15 | 281 | 6.4 | 14.5 | 0.00 | 0.00 | 0.00 | 44 | 1010.8 |
| 20260502201146 | 15 | 300 | 6.4 | 14.5 | 0.00 | 0.00 | 0.00 | 45 | 1010.8 |
| 20260502201045 | 15 | 308 | 8.0 | 16.1 | 0.00 | 0.00 | 0.00 | 43 | 1010.9 |
| 20260502200944 | 15 | 308 | 8.0 | 16.1 | 0.00 | 0.00 | 0.00 | 45 | 1010.9 |
| 20260502200837 | 15 | 342 | 8.0 | 16.1 | 0.00 | 0.00 | 0.00 | 44 | 1010.9 |
| 20260502200735 | 15 | 315 | 8.0 | 16.1 | 0.00 | 0.00 | 0.00 | 44 | 1011.0 |
| 20260502200636 | 15 | 284 | 8.0 | 16.1 | 0.00 | 0.00 | 0.00 | 46 | 1010.9 |
| 20260502200537 | 15 | 342 | 8.0 | 19.3 | 0.00 | 0.00 | 0.00 | 46 | 1010.9 |
| 20260502200434 | 15 | 343 | 9.7 | 19.3 | 0.00 | 0.00 | 0.00 | 44 | 1011.0 |
| 20260502200331 | 15 | 292 | 9.7 | 19.3 | 0.00 | 0.00 | 0.00 | 45 | 1011.0 |
| 20260502200228 | 15 | 338 | 8.0 | 19.3 | 0.00 | 0.00 | 0.00 | 45 | 1011.0 |
| 20260502200128 | 15 | 309 | 8.0 | 19.3 | 0.00 | 0.00 | 0.00 | 44 | 1011.0 |
| 20260502200029 | 15 | 344 | 6.4 | 19.3 | 0.00 | 0.00 | 0.00 | 43 | 1011.0 |
| 20260502195929 | 15 | 296 | 6.4 | 19.3 | 0.00 | 0.00 | 0.00 | 43 | 1011.0 |
| 20260502195822 | 15 | 296 | 6.4 | 19.3 | 0.00 | 0.00 | 0.00 | 43 | 1011.0 |
| 20260502195722 | 15 | 313 | 6.4 | 19.3 | 0.00 | 0.00 | 0.00 | 44 | 1010.9 |
| 20260502195623 | 15 | 336 | 4.8 | 19.3 | 0.00 | 0.00 | 0.00 | 44 | 1011.0 |
| 20260502195522 | 15 | 351 | 4.8 | 17.7 | 0.00 | 0.00 | 0.00 | 43 | 1011.0 |
| 20260502195423 | 15 | 325 | 3.2 | 17.7 | 0.00 | 0.00 | 0.00 | 46 | 1011.1 |
| 20260502195316 | 15 | 349 | 3.2 | 11.3 | 0.00 | 0.00 | 0.00 | 46 | 1011.0 |
| 20260502195217 | 15 | 83 | 3.2 | 11.3 | 0.00 | 0.00 | 0.00 | 45 | 1011.1 |
| 20260502195117 | 15 | 83 | 3.2 | 11.3 | 0.00 | 0.00 | 0.00 | 46 | 1011.0 |
| 20260502195014 | 15 | 83 | 4.8 | 11.3 | 0.00 | 0.00 | 0.00 | 46 | 1011.0 |
| 20260502194913 | 15 | 70 | 4.8 | 11.3 | 0.00 | 0.00 | 0.00 | 45 | 1011.1 |
| 20260502194807 | 15 | 0 | 4.8 | 11.3 | 0.00 | 0.00 | 0.00 | 45 | 1011.1 |
| 20260502194706 | 15 | 351 | 4.8 | 11.3 | 0.00 | 0.00 | 0.00 | 46 | 1011.0 |
| 20260502194607 | 15 | 340 | 4.8 | 11.3 | 0.00 | 0.00 | 0.00 | 43 | 1011.0 |
| 20260502194507 | 15 | 309 | 4.8 | 11.3 | 0.00 | 0.00 | 0.00 | 45 | 1011.1 |
| 20260502194406 | 15 | 339 | 4.8 | 12.9 | 0.00 | 0.00 | 0.00 | 44 | 1011.1 |
| 20260502194301 | 15 | 277 | 6.4 | 12.9 | 0.00 | 0.00 | 0.00 | 43 | 1011.1 |
| 20260502194159 | 15 | 269 | 4.8 | 12.9 | 0.00 | 0.00 | 0.00 | 44 | 1011.1 |
| 20260502194101 | 15 | 331 | 4.8 | 12.9 | 0.00 | 0.00 | 0.00 | 46 | 1011.1 |
| 20260502194000 | 15 | 35 | 4.8 | 12.9 | 0.00 | 0.00 | 0.00 | 46 | 1011.2 |
| 20260502193901 | 15 | 31 | 4.8 | 12.9 | 0.00 | 0.00 | 0.00 | 44 | 1011.2 |
| 20260502193752 | 15 | 19 | 4.8 | 12.9 | 0.00 | 0.00 | 0.00 | 45 | 1011.2 |
| 20260502193651 | 15 | 16 | 4.8 | 12.9 | 0.00 | 0.00 | 0.00 | 43 | 1011.3 |
| 20260502193551 | 15 | 294 | 3.2 | 12.9 | 0.00 | 0.00 | 0.00 | 44 | 1011.3 |
| 20260502193451 | 15 | 286 | 3.2 | 12.9 | 0.00 | 0.00 | 0.00 | 45 | 1011.3 |
| 20260502193350 | 15 | 318 | 3.2 | 8.0 | 0.00 | 0.00 | 0.00 | 45 | 1011.3 |
| 20260502193246 | 15 | 14 | 3.2 | 9.7 | 0.00 | 0.00 | 0.00 | 46 | 1011.3 |
| 20260502193146 | 15 | 34 | 3.2 | 9.7 | 0.00 | 0.00 | 0.00 | 44 | 1011.4 |
| 20260502193046 | 15 | 32 | 3.2 | 9.7 | 0.00 | 0.00 | 0.00 | 46 | 1011.4 |
| 20260502192947 | 15 | 32 | 3.2 | 9.7 | 0.00 | 0.00 | 0.00 | 46 | 1011.4 |
| 20260502192845 | 15 | 39 | 3.2 | 9.7 | 0.00 | 0.00 | 0.00 | 46 | 1011.3 |
| 20260502192741 | 15 | 63 | 4.8 | 12.9 | 0.00 | 0.00 | 0.00 | 46 | 1011.3 |
| 20260502192638 | 15 | 97 | 4.8 | 12.9 | 0.00 | 0.00 | 0.00 | 44 | 1011.4 |
| 20260502192538 | 15 | 97 | 4.8 | 12.9 | 0.00 | 0.00 | 0.00 | 44 | 1011.4 |
| 20260502192437 | 15 | 97 | 4.8 | 12.9 | 0.00 | 0.00 | 0.00 | 44 | 1011.4 |
| 20260502192339 | 15 | 94 | 4.8 | 12.9 | 0.00 | 0.00 | 0.00 | 44 | 1011.4 |
| 20260502192231 | 15 | 67 | 4.8 | 12.9 | 0.00 | 0.00 | 0.00 | 44 | 1011.5 |
| 20260502192127 | 15 | 36 | 4.8 | 12.9 | 0.00 | 0.00 | 0.00 | 45 | 1011.4 |
| 20260502192028 | 15 | 34 | 4.8 | 12.9 | 0.00 | 0.00 | 0.00 | 45 | 1011.5 |
| 20260502191928 | 15 | 11 | 4.8 | 12.9 | 0.00 | 0.00 | 0.00 | 46 | 1011.4 |
| 20260502191829 | 15 | 34 | 4.8 | 17.7 | 0.00 | 0.00 | 0.00 | 48 | 1011.4 |
| 20260502191723 | 15 | 17 | 4.8 | 17.7 | 0.00 | 0.00 | 0.00 | 46 | 1011.4 |
| 20260502191625 | 15 | 37 | 4.8 | 17.7 | 0.00 | 0.00 | 0.00 | 45 | 1011.5 |
| 20260502191524 | 15 | 279 | 4.8 | 17.7 | 0.00 | 0.00 | 0.00 | 45 | 1011.5 |
| 20260502191423 | 15 | 51 | 4.8 | 17.7 | 0.00 | 0.00 | 0.00 | 45 | 1011.4 |
| 20260502191322 | 15 | 49 | 4.8 | 17.7 | 0.00 | 0.00 | 0.00 | 47 | 1011.4 |
| 20260502191217 | 15 | 19 | 4.8 | 17.7 | 0.00 | 0.00 | 0.00 | 47 | 1011.4 |
| 20260502191117 | 15 | 19 | 4.8 | 17.7 | 0.00 | 0.00 | 0.00 | 49 | 1011.4 |
| 20260502191017 | 15 | 336 | 4.8 | 17.7 | 0.00 | 0.00 | 0.00 | 43 | 1011.4 |
| 20260502190916 | 15 | 292 | 4.8 | 17.7 | 0.00 | 0.00 | 0.00 | 44 | 1011.5 |
| 20260502190817 | 15 | 355 | 4.8 | 12.9 | 0.00 | 0.00 | 0.00 | 44 | 1011.4 |
| 20260502190706 | 15 | 21 | 4.8 | 11.3 | 0.00 | 0.00 | 0.00 | 45 | 1011.5 |
| 20260502190606 | 15 | 5 | 4.8 | 11.3 | 0.00 | 0.00 | 0.00 | 46 | 1011.5 |
| 20260502190505 | 15 | 5 | 4.8 | 11.3 | 0.00 | 0.00 | 0.00 | 46 | 1011.5 |
| 20260502190406 | 15 | 15 | 4.8 | 11.3 | 0.00 | 0.00 | 0.00 | 47 | 1011.4 |
| 20260502190307 | 15 | 151 | 4.8 | 11.3 | 0.00 | 0.00 | 0.00 | 46 | 1011.5 |
| 20260502190202 | 14 | 124 | 4.8 | 11.3 | 0.00 | 0.00 | 0.00 | 45 | 1011.6 |
| 20260502190059 | 14 | 121 | 4.8 | 12.9 | 0.00 | 0.00 | 0.00 | 47 | 1011.5 |
| 20260502190001 | 14 | 112 | 4.8 | 12.9 | 0.00 | 0.00 | 0.00 | 45 | 1011.6 |
| 20260502185859 | 14 | 110 | 4.8 | 12.9 | 0.00 | 0.00 | 0.00 | 48 | 1011.7 |
| 20260502185801 | 14 | 117 | 4.8 | 12.9 | 0.00 | 0.00 | 0.00 | 45 | 1011.7 |
| 20260502185658 | 14 | 121 | 4.8 | 12.9 | 0.00 | 0.00 | 0.00 | 45 | 1011.7 |
| 20260502185559 | 14 | 121 | 4.8 | 12.9 | 0.00 | 0.00 | 0.00 | 46 | 1011.7 |
| 20260502185456 | 14 | 121 | 4.8 | 12.9 | 0.00 | 0.00 | 0.00 | 47 | 1011.8 |
| 20260502185356 | 14 | 130 | 4.8 | 12.9 | 0.00 | 0.00 | 0.00 | 45 | 1011.8 |
| 20260502185255 | 14 | 131 | 4.8 | 12.9 | 0.00 | 0.00 | 0.00 | 45 | 1011.7 |
| 20260502185145 | 14 | 111 | 4.8 | 12.9 | 0.00 | 0.00 | 0.00 | 45 | 1011.7 |
| 20260502185046 | 14 | 114 | 3.2 | 11.3 | 0.00 | 0.00 | 0.00 | 47 | 1011.7 |
| 20260502184947 | 14 | 114 | 3.2 | 11.3 | 0.00 | 0.00 | 0.00 | 46 | 1011.8 |
| 20260502184846 | 14 | 115 | 3.2 | 9.7 | 0.00 | 0.00 | 0.00 | 46 | 1011.7 |
| 20260502184746 | 14 | 88 | 3.2 | 6.4 | 0.00 | 0.00 | 0.00 | 45 | 1011.7 |
| 20260502184641 | 14 | 82 | 3.2 | 6.4 | 0.00 | 0.00 | 0.00 | 46 | 1011.7 |
| 20260502184538 | 14 | 222 | 3.2 | 8.0 | 0.00 | 0.00 | 0.00 | 45 | 1011.7 |
| 20260502184437 | 14 | 221 | 3.2 | 8.0 | 0.00 | 0.00 | 0.00 | 45 | 1011.8 |
| 20260502184338 | 14 | 17 | 3.2 | 8.0 | 0.00 | 0.00 | 0.00 | 47 | 1012.0 |
| 20260502184239 | 13 | 310 | 3.2 | 9.7 | 0.00 | 0.00 | 0.00 | 45 | 1011.7 |
| 20260502184132 | 13 | 281 | 4.8 | 14.5 | 0.00 | 0.00 | 0.00 | 46 | 1011.8 |
| 20260502184032 | 13 | 19 | 4.8 | 14.5 | 0.00 | 0.00 | 0.00 | 47 | 1012.0 |
| 20260502183933 | 13 | 22 | 4.8 | 14.5 | 0.00 | 0.00 | 0.00 | 46 | 1012.0 |
| 20260502183832 | 13 | 288 | 4.8 | 14.5 | 0.00 | 0.00 | 0.00 | 45 | 1012.0 |
| 20260502183733 | 13 | 250 | 6.4 | 16.1 | 0.00 | 0.00 | 0.00 | 45 | 1011.8 |
| 20260502183622 | 13 | 249 | 6.4 | 16.1 | 0.00 | 0.00 | 0.00 | 45 | 1011.8 |
| 20260502183522 | 13 | 9 | 6.4 | 16.1 | 0.00 | 0.00 | 0.00 | 46 | 1011.8 |
| 20260502183421 | 13 | 10 | 6.4 | 16.1 | 0.00 | 0.00 | 0.00 | 46 | 1011.8 |
| 20260502183323 | 13 | 340 | 6.4 | 16.1 | 0.00 | 0.00 | 0.00 | 45 | 1012.0 |
| 20260502183223 | 13 | 348 | 6.4 | 16.1 | 0.00 | 0.00 | 0.00 | 47 | 1012.0 |
| 20260502183118 | 13 | 5 | 6.4 | 16.1 | 0.00 | 0.00 | 0.00 | 48 | 1012.0 |
| 20260502183017 | 13 | 5 | 6.4 | 16.1 | 0.00 | 0.00 | 0.00 | 48 | 1011.8 |
| 20260502182917 | 13 | 288 | 6.4 | 16.1 | 0.00 | 0.00 | 0.00 | 47 | 1011.8 |
| 20260502182817 | 13 | 329 | 6.4 | 16.1 | 0.00 | 0.00 | 0.00 | 47 | 1011.7 |
| 20260502182716 | 13 | 100 | 4.8 | 16.1 | 0.00 | 0.00 | 0.00 | 46 | 1011.7 |
| 20260502182611 | 13 | 30 | 4.8 | 16.1 | 0.00 | 0.00 | 0.00 | 46 | 1011.7 |
| 20260502182511 | 13 | 57 | 4.8 | 16.1 | 0.00 | 0.00 | 0.00 | 47 | 1011.7 |
| 20260502182410 | 13 | 46 | 4.8 | 16.1 | 0.00 | 0.00 | 0.00 | 48 | 1011.7 |
| 20260502182313 | 13 | 42 | 4.8 | 16.1 | 0.00 | 0.00 | 0.00 | 49 | 1011.7 |
| 20260502182211 | 13 | 109 | 4.8 | 16.1 | 0.00 | 0.00 | 0.00 | 50 | 1011.7 |
| 20260502182100 | 13 | 118 | 4.8 | 16.1 | 0.00 | 0.00 | 0.00 | 47 | 1011.7 |
| 20260502182000 | 13 | 74 | 4.8 | 16.1 | 0.00 | 0.00 | 0.00 | 47 | 1011.8 |
| 20260502181900 | 13 | 286 | 6.4 | 16.1 | 0.00 | 0.00 | 0.00 | 46 | 1011.8 |
| 20260502181800 | 13 | 300 | 6.4 | 16.1 | 0.00 | 0.00 | 0.00 | 46 | 1011.8 |
| 20260502181700 | 13 | 296 | 6.4 | 16.1 | 0.00 | 0.00 | 0.00 | 47 | 1012.0 |
| 20260502181555 | 13 | 351 | 6.4 | 16.1 | 0.00 | 0.00 | 0.00 | 50 | 1012.0 |
| 20260502181455 | 13 | 92 | 6.4 | 16.1 | 0.00 | 0.00 | 0.00 | 47 | 1012.0 |
| 20260502181355 | 13 | 32 | 6.4 | 16.1 | 0.00 | 0.00 | 0.00 | 50 | 1012.0 |
| 20260502181255 | 13 | 95 | 6.4 | 16.1 | 0.00 | 0.00 | 0.00 | 48 | 1011.8 |
| 20260502181155 | 13 | 84 | 6.4 | 16.1 | 0.00 | 0.00 | 0.00 | 47 | 1012.0 |
| 20260502181051 | 13 | 57 | 4.8 | 16.1 | 0.00 | 0.00 | 0.00 | 47 | 1012.0 |
| 20260502180947 | 13 | 92 | 4.8 | 16.1 | 0.00 | 0.00 | 0.00 | 48 | 1012.0 |
| 20260502180849 | 13 | 69 | 4.8 | 16.1 | 0.00 | 0.00 | 0.00 | 48 | 1012.0 |
| 20260502180749 | 13 | 16 | 4.8 | 14.5 | 0.00 | 0.00 | 0.00 | 48 | 1012.1 |
| 20260502180649 | 13 | 340 | 4.8 | 14.5 | 0.00 | 0.00 | 0.00 | 49 | 1012.1 |
| 20260502180538 | 13 | 51 | 3.2 | 14.5 | 0.00 | 0.00 | 0.00 | 48 | 1012.1 |
| 20260502180437 | 13 | 350 | 4.8 | 14.5 | 0.00 | 0.00 | 0.00 | 48 | 1012.1 |
| 20260502180339 | 13 | 82 | 4.8 | 14.5 | 0.00 | 0.00 | 0.00 | 51 | 1012.0 |
| 20260502180239 | 13 | 103 | 4.8 | 14.5 | 0.00 | 0.00 | 0.00 | 49 | 1012.0 |
| 20260502180138 | 13 | 178 | 4.8 | 14.5 | 0.00 | 0.00 | 0.00 | 48 | 1012.1 |
| 20260502170453 | 11 | 98 | 4.8 | 11.3 | 0.00 | 0.00 | 0.00 | 50 | 1012.8 |
| 20260502170351 | 11 | 98 | 4.8 | 11.3 | 0.00 | 0.00 | 0.00 | 50 | 1012.9 |
| 20260502170249 | 11 | 98 | 4.8 | 12.9 | 0.00 | 0.00 | 0.00 | 50 | 1012.9 |
| 20260502170150 | 11 | 92 | 4.8 | 12.9 | 0.00 | 0.00 | 0.00 | 51 | 1013.0 |
| 20260502164337 | 11 | 54 | 4.8 | 12.9 | 0.00 | 0.00 | 0.00 | 52 | 1013.3 |
| 20260502164236 | 11 | 32 | 4.8 | 12.9 | 0.00 | 0.00 | 0.00 | 51 | 1013.4 |
| 20260502164137 | 11 | 32 | 4.8 | 12.9 | 0.00 | 0.00 | 0.00 | 51 | 1013.5 |
| 20260502164035 | 11 | 29 | 4.8 | 12.9 | 0.00 | 0.00 | 0.00 | 51 | 1013.5 |
| 20260502163937 | 11 | 36 | 4.8 | 12.9 | 0.00 | 0.00 | 0.00 | 51 | 1013.5 |
| 20260502163831 | 11 | 87 | 4.8 | 12.9 | 0.00 | 0.00 | 0.00 | 51 | 1013.5 |
| 20260502163730 | 11 | 95 | 6.4 | 12.9 | 0.00 | 0.00 | 0.00 | 51 | 1013.5 |
| 20260502163631 | 11 | 92 | 6.4 | 14.5 | 0.00 | 0.00 | 0.00 | 54 | 1013.4 |
| 20260502163530 | 11 | 72 | 6.4 | 14.5 | 0.00 | 0.00 | 0.00 | 53 | 1013.5 |
| 20260502163429 | 11 | 84 | 6.4 | 14.5 | 0.00 | 0.00 | 0.00 | 55 | 1013.5 |
| 20260502163330 | 10 | 58 | 6.4 | 14.5 | 0.00 | 0.00 | 0.00 | 56 | 1013.5 |
| 20260502163230 | 10 | 10 | 6.4 | 14.5 | 0.00 | 0.00 | 0.00 | 54 | 1013.5 |
| 20260502163131 | 10 | 355 | 6.4 | 14.5 | 0.00 | 0.00 | 0.00 | 55 | 1013.7 |
| 20260502163029 | 10 | 38 | 6.4 | 14.5 | 0.00 | 0.00 | 0.00 | 55 | 1013.7 |
| 20260502162929 | 10 | 22 | 6.4 | 14.5 | 0.00 | 0.00 | 0.00 | 54 | 1013.5 |
| 20260502162829 | 10 | 12 | 6.4 | 14.5 | 0.00 | 0.00 | 0.00 | 55 | 1013.5 |
| 20260502162731 | 10 | 341 | 4.8 | 14.5 | 0.00 | 0.00 | 0.00 | 54 | 1013.7 |
| 20260502162631 | 10 | 340 | 4.8 | 9.7 | 0.00 | 0.00 | 0.00 | 54 | 1013.7 |
| 20260502162529 | 10 | 82 | 4.8 | 9.7 | 0.00 | 0.00 | 0.00 | 54 | 1013.8 |
| 20260502162431 | 10 | 83 | 4.8 | 9.7 | 0.00 | 0.00 | 0.00 | 55 | 1013.7 |
| 20260502162328 | 10 | 41 | 4.8 | 9.7 | 0.00 | 0.00 | 0.00 | 56 | 1013.7 |
| 20260502162227 | 10 | 40 | 4.8 | 8.0 | 0.00 | 0.00 | 0.00 | 55 | 1013.8 |
| 20260502162129 | 10 | 40 | 4.8 | 8.0 | 0.00 | 0.00 | 0.00 | 55 | 1013.8 |
| 20260502162026 | 10 | 40 | 4.8 | 8.0 | 0.00 | 0.00 | 0.00 | 55 | 1013.9 |
| 20260502161926 | 10 | 342 | 4.8 | 8.0 | 0.00 | 0.00 | 0.00 | 56 | 1013.9 |
| 20260502161826 | 10 | 340 | 4.8 | 8.0 | 0.00 | 0.00 | 0.00 | 58 | 1013.9 |
| 20260502161726 | 10 | 47 | 4.8 | 8.0 | 0.00 | 0.00 | 0.00 | 58 | 1013.9 |
| 20260502161626 | 10 | 80 | 4.8 | 8.0 | 0.00 | 0.00 | 0.00 | 57 | 1013.9 |
| 20260502161525 | 10 | 80 | 4.8 | 8.0 | 0.00 | 0.00 | 0.00 | 58 | 1013.9 |
| 20260502161426 | 10 | 34 | 4.8 | 12.9 | 0.00 | 0.00 | 0.00 | 58 | 1014.0 |
| 20260502161325 | 10 | 18 | 4.8 | 12.9 | 0.00 | 0.00 | 0.00 | 57 | 1013.9 |
| 20260502161226 | 10 | 343 | 4.8 | 12.9 | 0.00 | 0.00 | 0.00 | 57 | 1014.0 |
| 20260502161126 | 10 | 343 | 4.8 | 12.9 | 0.00 | 0.00 | 0.00 | 59 | 1014.0 |
| 20260502161025 | 10 | 52 | 4.8 | 12.9 | 0.00 | 0.00 | 0.00 | 59 | 1014.0 |
| 20260502160925 | 10 | 53 | 4.8 | 12.9 | 0.00 | 0.00 | 0.00 | 59 | 1014.0 |
| 20260502160827 | 10 | 55 | 4.8 | 12.9 | 0.00 | 0.00 | 0.00 | 58 | 1014.0 |
| 20260502160725 | 10 | 31 | 4.8 | 12.9 | 0.00 | 0.00 | 0.00 | 58 | 1014.0 |
| 20260502160626 | 10 | 333 | 4.8 | 12.9 | 0.00 | 0.00 | 0.00 | 58 | 1014.1 |
| 20260502160526 | 10 | 313 | 4.8 | 12.9 | 0.00 | 0.00 | 0.00 | 59 | 1014.1 |
| 20260502160426 | 10 | 305 | 4.8 | 11.3 | 0.00 | 0.00 | 0.00 | 58 | 1014.0 |
| 20260502160326 | 10 | 24 | 4.8 | 11.3 | 0.00 | 0.00 | 0.00 | 56 | 1014.0 |
| 20260502160225 | 10 | 23 | 4.8 | 14.5 | 0.00 | 0.00 | 0.00 | 56 | 1013.9 |
| 20260502160126 | 10 | 340 | 4.8 | 14.5 | 0.00 | 0.00 | 0.00 | 56 | 1014.0 |
| 20260502152322 | 8 | 11 | 4.8 | 11.3 | 0.00 | 0.00 | 0.00 | 61 | 1014.0 |
| 20260502152221 | 8 | 18 | 4.8 | 11.3 | 0.00 | 0.00 | 0.00 | 63 | 1014.0 |
| 20260502152122 | 8 | 53 | 4.8 | 9.7 | 0.00 | 0.00 | 0.00 | 62 | 1014.0 |
| 20260502152022 | 8 | 40 | 4.8 | 9.7 | 0.00 | 0.00 | 0.00 | 63 | 1014.0 |
| 20260502151921 | 8 | 341 | 4.8 | 9.7 | 0.00 | 0.00 | 0.00 | 62 | 1014.0 |
| 20260502151821 | 8 | 324 | 4.8 | 9.7 | 0.00 | 0.00 | 0.00 | 62 | 1014.0 |
| 20260502151721 | 8 | 63 | 3.2 | 9.7 | 0.00 | 0.00 | 0.00 | 62 | 1014.0 |
| 20260502151622 | 8 | 20 | 4.8 | 9.7 | 0.00 | 0.00 | 0.00 | 61 | 1014.0 |
| 20260502151521 | 8 | 43 | 4.8 | 9.7 | 0.00 | 0.00 | 0.00 | 62 | 1014.0 |
| 20260502151422 | 8 | 329 | 4.8 | 9.7 | 0.00 | 0.00 | 0.00 | 62 | 1014.0 |
| 20260502151317 | 8 | 20 | 3.2 | 8.0 | 0.00 | 0.00 | 0.00 | 63 | 1014.0 |
| 20260502151217 | 8 | 29 | 3.2 | 8.0 | 0.00 | 0.00 | 0.00 | 64 | 1014.0 |
| 20260502151118 | 8 | 0 | 4.8 | 8.0 | 0.00 | 0.00 | 0.00 | 63 | 1014.0 |
| 20260502151017 | 8 | 5 | 4.8 | 8.0 | 0.00 | 0.00 | 0.00 | 63 | 1014.1 |
| 20260502150917 | 8 | 5 | 4.8 | 8.0 | 0.00 | 0.00 | 0.00 | 63 | 1014.0 |
| 20260502150819 | 8 | 17 | 4.8 | 8.0 | 0.00 | 0.00 | 0.00 | 62 | 1014.0 |
| 20260502150718 | 8 | 17 | 3.2 | 8.0 | 0.00 | 0.00 | 0.00 | 61 | 1014.0 |
| 20260502150618 | 8 | 355 | 3.2 | 8.0 | 0.00 | 0.00 | 0.00 | 62 | 1014.0 |
| 20260502150519 | 8 | 350 | 3.2 | 8.0 | 0.00 | 0.00 | 0.00 | 62 | 1014.0 |
| 20260502150419 | 8 | 26 | 3.2 | 8.0 | 0.00 | 0.00 | 0.00 | 62 | 1014.0 |
| 20260502150317 | 8 | 35 | 3.2 | 8.0 | 0.00 | 0.00 | 0.00 | 61 | 1014.0 |
| 20260502150217 | 8 | 9 | 3.2 | 8.0 | 0.00 | 0.00 | 0.00 | 61 | 1014.0 |
| 20260502150118 | 8 | 28 | 3.2 | 8.0 | 0.00 | 0.00 | 0.00 | 61 | 1014.1 |
| 20260502130656 | 8 | 342 | 9.7 | 16.1 | 0.00 | 0.00 | 0.00 | 71 | 1013.3 |
| 20260502130555 | 8 | 313 | 8.0 | 16.1 | 0.00 | 0.00 | 0.00 | 70 | 1013.3 |
| 20260502130456 | 8 | 323 | 8.0 | 16.1 | 0.00 | 0.00 | 0.00 | 70 | 1013.4 |
| 20260502130349 | 8 | 323 | 8.0 | 16.1 | 0.00 | 0.00 | 0.00 | 71 | 1013.4 |
| 20260502130249 | 8 | 300 | 8.0 | 16.1 | 0.00 | 0.00 | 0.00 | 71 | 1013.4 |
| 20260502130149 | 8 | 313 | 8.0 | 16.1 | 0.00 | 0.00 | 0.00 | 70 | 1013.4 |
| 20260502123811 | 8 | 326 | 6.4 | 11.3 | 0.00 | 0.00 | 0.00 | 74 | 1013.1 |
| 20260502123709 | 8 | 312 | 6.4 | 11.3 | 0.00 | 0.00 | 0.00 | 74 | 1012.9 |
| 20260502123609 | 8 | 309 | 6.4 | 11.3 | 0.00 | 0.00 | 0.00 | 74 | 1012.9 |
| 20260502123511 | 8 | 309 | 6.4 | 11.3 | 0.00 | 0.00 | 0.00 | 74 | 1012.9 |
| 20260502123409 | 8 | 343 | 6.4 | 11.3 | 0.00 | 0.00 | 0.00 | 73 | 1013.1 |
| 20260502123304 | 8 | 355 | 6.4 | 11.3 | 0.00 | 0.00 | 0.00 | 72 | 1013.1 |
| 20260502123203 | 8 | 350 | 6.4 | 11.3 | 0.00 | 0.00 | 0.00 | 72 | 1013.2 |
| 20260502123104 | 8 | 306 | 6.4 | 11.3 | 0.00 | 0.00 | 0.00 | 73 | 1013.1 |
| 20260502123004 | 8 | 292 | 6.4 | 11.3 | 0.00 | 0.00 | 0.00 | 75 | 1013.1 |
| 20260502122904 | 8 | 309 | 6.4 | 11.3 | 0.00 | 0.00 | 0.00 | 75 | 1013.1 |
| 20260502122754 | 8 | 286 | 6.4 | 11.3 | 0.00 | 0.00 | 0.00 | 76 | 1013.1 |
| 20260502122653 | 8 | 333 | 4.8 | 11.3 | 0.00 | 0.00 | 0.00 | 75 | 1013.2 |
| 20260502122554 | 8 | 325 | 4.8 | 11.3 | 0.00 | 0.00 | 0.00 | 75 | 1013.1 |
| 20260502122454 | 8 | 338 | 4.8 | 11.3 | 0.00 | 0.00 | 0.00 | 74 | 1013.2 |
| 20260502122353 | 8 | 313 | 4.8 | 11.3 | 0.00 | 0.00 | 0.00 | 75 | 1013.2 |
| 20260502122246 | 8 | 322 | 4.8 | 11.3 | 0.00 | 0.00 | 0.00 | 75 | 1013.2 |
| 20260502122145 | 8 | 340 | 4.8 | 11.3 | 0.00 | 0.00 | 0.00 | 75 | 1013.2 |
| 20260502122046 | 8 | 321 | 4.8 | 11.3 | 0.00 | 0.00 | 0.00 | 76 | 1013.2 |
| 20260502121945 | 8 | 308 | 4.8 | 11.3 | 0.00 | 0.00 | 0.00 | 75 | 1013.2 |
| 20260502121846 | 8 | 303 | 4.8 | 8.0 | 0.00 | 0.00 | 0.00 | 75 | 1013.2 |
| 20260502121743 | 8 | 325 | 4.8 | 8.0 | 0.00 | 0.00 | 0.00 | 75 | 1013.2 |
| 20260502121641 | 8 | 309 | 4.8 | 8.0 | 0.00 | 0.00 | 0.00 | 74 | 1013.3 |
| 20260502121539 | 8 | 305 | 4.8 | 16.1 | 0.00 | 0.00 | 0.00 | 75 | 1013.2 |
| 20260502121440 | 8 | 306 | 4.8 | 16.1 | 0.00 | 0.00 | 0.00 | 75 | 1013.1 |
| 20260502121340 | 8 | 11 | 4.8 | 16.1 | 0.00 | 0.00 | 0.00 | 75 | 1013.0 |
| 20260502121233 | 8 | 343 | 4.8 | 16.1 | 0.00 | 0.00 | 0.00 | 74 | 1012.9 |
| 20260502121134 | 8 | 343 | 4.8 | 16.1 | 0.00 | 0.00 | 0.00 | 74 | 1012.9 |
| 20260502121033 | 8 | 330 | 4.8 | 16.1 | 0.00 | 0.00 | 0.00 | 74 | 1012.9 |
| 20260502120932 | 8 | 329 | 4.8 | 16.1 | 0.00 | 0.00 | 0.00 | 74 | 1012.8 |
| 20260502120830 | 8 | 329 | 6.4 | 16.1 | 0.00 | 0.00 | 0.00 | 74 | 1012.8 |
| 20260502120727 | 8 | 334 | 6.4 | 16.1 | 0.00 | 0.00 | 0.00 | 73 | 1012.8 |
| 20260502120629 | 8 | 318 | 6.4 | 16.1 | 0.00 | 0.00 | 0.00 | 73 | 1012.7 |
| 20260502120525 | 8 | 323 | 6.4 | 16.1 | 0.00 | 0.00 | 0.00 | 73 | 1012.6 |
| 20260502120426 | 8 | 315 | 6.4 | 16.1 | 0.00 | 0.00 | 0.00 | 73 | 1012.8 |
| 20260502120324 | 8 | 329 | 6.4 | 16.1 | 0.00 | 0.00 | 0.00 | 73 | 1012.8 |
| 20260502120217 | 8 | 11 | 6.4 | 16.1 | 0.00 | 0.00 | 0.00 | 73 | 1012.8 |
| 20260502120118 | 8 | 335 | 6.4 | 16.1 | 0.00 | 0.00 | 0.00 | 73 | 1012.6 |
| 20260502115917 | 8 | 355 | 6.4 | 16.1 | 0.00 | 0.00 | 0.00 | 73 | 1012.9 |
| 20260502115818 | 8 | 355 | 6.4 | 16.1 | 0.00 | 0.00 | 0.00 | 73 | 1012.9 |
| 20260502115707 | 8 | 313 | 6.4 | 16.1 | 0.00 | 0.00 | 0.00 | 74 | 1012.8 |
| 20260502115607 | 8 | 317 | 6.4 | 14.5 | 0.00 | 0.00 | 0.00 | 74 | 1012.8 |
| 20260502115508 | 8 | 341 | 6.4 | 14.5 | 0.00 | 0.00 | 0.00 | 73 | 1012.9 |
| 20260502115406 | 8 | 350 | 6.4 | 16.1 | 0.00 | 0.00 | 0.00 | 73 | 1012.8 |
| 20260502115308 | 8 | 346 | 6.4 | 16.1 | 0.00 | 0.00 | 0.00 | 74 | 1012.8 |
| 20260502115201 | 8 | 343 | 6.4 | 16.1 | 0.00 | 0.00 | 0.00 | 75 | 1012.8 |
| 20260502115101 | 8 | 310 | 6.4 | 16.1 | 0.00 | 0.00 | 0.00 | 75 | 1012.8 |
| 20260502115001 | 8 | 0 | 8.0 | 16.1 | 0.00 | 0.00 | 0.00 | 75 | 1012.9 |
| 20260502114901 | 8 | 0 | 8.0 | 16.1 | 0.00 | 0.00 | 0.00 | 74 | 1012.8 |
| 20260502114801 | 8 | 0 | 8.0 | 16.1 | 0.00 | 0.00 | 0.00 | 75 | 1013.0 |
| 20260502114655 | 8 | 5 | 8.0 | 16.1 | 0.00 | 0.00 | 0.00 | 76 | 1013.0 |
| 20260502114555 | 8 | 327 | 8.0 | 16.1 | 0.00 | 0.00 | 0.00 | 76 | 1013.2 |
| 20260502114455 | 8 | 313 | 8.0 | 14.5 | 0.00 | 0.00 | 0.00 | 77 | 1013.0 |
| 20260502114355 | 8 | 344 | 8.0 | 14.5 | 0.00 | 0.00 | 0.00 | 77 | 1013.0 |
| 20260502114256 | 8 | 284 | 8.0 | 14.5 | 0.00 | 0.00 | 0.00 | 77 | 1012.9 |
| 20260502114147 | 8 | 329 | 6.4 | 14.5 | 0.00 | 0.00 | 0.00 | 77 | 1012.9 |
| 20260502114045 | 8 | 326 | 6.4 | 14.5 | 0.00 | 0.00 | 0.00 | 77 | 1012.9 |
| 20260502113946 | 8 | 307 | 6.4 | 14.5 | 0.00 | 0.00 | 0.00 | 77 | 1012.9 |
| 20260502113846 | 8 | 309 | 6.4 | 14.5 | 0.00 | 0.00 | 0.00 | 77 | 1012.9 |
| 20260502113746 | 8 | 348 | 6.4 | 14.5 | 0.00 | 0.00 | 0.00 | 77 | 1012.8 |
| 20260502113640 | 8 | 351 | 6.4 | 12.9 | 0.00 | 0.00 | 0.00 | 77 | 1012.9 |
| 20260502113539 | 8 | 355 | 6.4 | 12.9 | 0.00 | 0.00 | 0.00 | 77 | 1012.9 |
| 20260502113440 | 8 | 339 | 6.4 | 14.5 | 0.00 | 0.00 | 0.00 | 77 | 1012.9 |
| 20260502113339 | 8 | 320 | 6.4 | 14.5 | 0.00 | 0.00 | 0.00 | 77 | 1012.9 |
| 20260502113240 | 8 | 318 | 6.4 | 14.5 | 0.00 | 0.00 | 0.00 | 77 | 1012.9 |
| 20260502113134 | 8 | 304 | 8.0 | 14.5 | 0.00 | 0.00 | 0.00 | 77 | 1012.9 |
| 20260502113034 | 8 | 335 | 8.0 | 14.5 | 0.00 | 0.00 | 0.00 | 77 | 1012.9 |
| 20260502112934 | 8 | 330 | 8.0 | 14.5 | 0.00 | 0.00 | 0.00 | 78 | 1013.0 |
| 20260502112833 | 8 | 322 | 8.0 | 14.5 | 0.00 | 0.00 | 0.00 | 77 | 1012.8 |
| 20260502112733 | 8 | 310 | 6.4 | 14.5 | 0.00 | 0.00 | 0.00 | 78 | 1012.9 |
| 20260502112623 | 8 | 301 | 6.4 | 14.5 | 0.00 | 0.00 | 0.00 | 77 | 1012.9 |
| 20260502112524 | 8 | 317 | 6.4 | 14.5 | 0.00 | 0.00 | 0.00 | 77 | 1012.9 |
| 20260502112424 | 8 | 325 | 6.4 | 14.5 | 0.00 | 0.00 | 0.00 | 77 | 1012.8 |
| 20260502112323 | 8 | 311 | 6.4 | 11.3 | 0.00 | 0.00 | 0.00 | 78 | 1012.8 |
| 20260502112234 | 8 | 319 | 6.4 | 11.3 | 0.00 | 0.00 | 0.00 | 78 | 1012.7 |
| 20260502112118 | 8 | 306 | 6.4 | 11.3 | 0.00 | 0.00 | 0.00 | 78 | 1012.7 |
| 20260502112018 | 8 | 355 | 6.4 | 11.3 | 0.00 | 0.00 | 0.00 | 78 | 1012.8 |
| 20260502111917 | 8 | 319 | 6.4 | 11.3 | 0.00 | 0.00 | 0.00 | 78 | 1012.8 |
| 20260502111818 | 8 | 313 | 6.4 | 11.3 | 0.00 | 0.00 | 0.00 | 78 | 1012.8 |
| 20260502111717 | 8 | 313 | 6.4 | 11.3 | 0.00 | 0.00 | 0.00 | 78 | 1012.8 |
| 20260502111612 | 8 | 338 | 6.4 | 11.3 | 0.00 | 0.00 | 0.00 | 78 | 1012.8 |
| 20260502111511 | 8 | 297 | 6.4 | 11.3 | 0.00 | 0.00 | 0.00 | 78 | 1012.9 |
| 20260502111412 | 8 | 313 | 6.4 | 11.3 | 0.00 | 0.00 | 0.00 | 78 | 1012.9 |
| 20260502111310 | 8 | 315 | 6.4 | 11.3 | 0.00 | 0.00 | 0.00 | 78 | 1012.8 |
| 20260502111212 | 8 | 302 | 4.8 | 12.9 | 0.00 | 0.00 | 0.00 | 77 | 1012.6 |
| 20260502111102 | 8 | 348 | 6.4 | 12.9 | 0.00 | 0.00 | 0.00 | 77 | 1012.7 |
| 20260502111002 | 8 | 325 | 6.4 | 14.5 | 0.00 | 0.00 | 0.00 | 77 | 1012.6 |
| 20260502110902 | 8 | 309 | 6.4 | 14.5 | 0.00 | 0.00 | 0.00 | 77 | 1012.7 |
| 20260502110800 | 8 | 331 | 6.4 | 14.5 | 0.00 | 0.00 | 0.00 | 77 | 1012.7 |
| 20260502110701 | 8 | 327 | 8.0 | 14.5 | 0.00 | 0.00 | 0.00 | 77 | 1012.7 |
| 20260502110558 | 8 | 355 | 8.0 | 14.5 | 0.00 | 0.00 | 0.00 | 77 | 1012.7 |
| 20260502110456 | 8 | 355 | 8.0 | 16.1 | 0.00 | 0.00 | 0.00 | 77 | 1012.7 |
| 20260502110354 | 8 | 355 | 8.0 | 16.1 | 0.00 | 0.00 | 0.00 | 77 | 1012.8 |
| 20260502110258 | 8 | 5 | 8.0 | 16.1 | 0.00 | 0.00 | 0.00 | 77 | 1012.8 |
| 20260502110156 | 8 | 355 | 9.7 | 16.1 | 0.00 | 0.00 | 0.00 | 77 | 1012.8 |
| 20260502110052 | 8 | 339 | 9.7 | 16.1 | 0.00 | 0.00 | 0.00 | 77 | 1012.8 |
| 20260502105950 | 8 | 311 | 9.7 | 16.1 | 0.00 | 0.00 | 0.00 | 76 | 1012.8 |
| 20260502105850 | 8 | 344 | 8.0 | 16.1 | 0.00 | 0.00 | 0.00 | 76 | 1012.8 |
| 20260502105749 | 8 | 339 | 8.0 | 16.1 | 0.00 | 0.00 | 0.00 | 77 | 1012.7 |
| 20260502105649 | 8 | 307 | 8.0 | 16.1 | 0.00 | 0.00 | 0.00 | 77 | 1012.8 |
| 20260502105540 | 8 | 318 | 8.0 | 14.5 | 0.00 | 0.00 | 0.00 | 77 | 1012.6 |
| 20260502105440 | 8 | 355 | 8.0 | 14.5 | 0.00 | 0.00 | 0.00 | 77 | 1012.6 |
| 20260502105340 | 8 | 355 | 8.0 | 14.5 | 0.00 | 0.00 | 0.00 | 77 | 1012.5 |
| 20260502105238 | 8 | 321 | 8.0 | 14.5 | 0.00 | 0.00 | 0.00 | 77 | 1012.5 |
| 20260502105139 | 8 | 326 | 8.0 | 14.5 | 0.00 | 0.00 | 0.00 | 77 | 1012.4 |
| 20260502105035 | 8 | 355 | 8.0 | 14.5 | 0.00 | 0.00 | 0.00 | 77 | 1012.4 |
| 20260502104934 | 8 | 341 | 8.0 | 14.5 | 0.00 | 0.00 | 0.00 | 78 | 1012.4 |
| 20260502104834 | 8 | 345 | 8.0 | 14.5 | 0.00 | 0.00 | 0.00 | 78 | 1012.4 |
| 20260502104734 | 8 | 313 | 8.0 | 14.5 | 0.00 | 0.00 | 0.00 | 78 | 1012.5 |
| 20260502104633 | 8 | 338 | 8.0 | 14.5 | 0.00 | 0.00 | 0.00 | 78 | 1012.6 |
| 20260502104528 | 8 | 297 | 8.0 | 14.5 | 0.00 | 0.00 | 0.00 | 77 | 1012.6 |
| 20260502104430 | 8 | 325 | 8.0 | 14.5 | 0.00 | 0.00 | 0.00 | 78 | 1012.6 |
| 20260502104329 | 8 | 331 | 8.0 | 14.5 | 0.00 | 0.00 | 0.00 | 78 | 1012.6 |
| 20260502104229 | 8 | 349 | 6.4 | 14.5 | 0.00 | 0.00 | 0.00 | 78 | 1012.6 |
| 20260502104128 | 8 | 325 | 6.4 | 14.5 | 0.00 | 0.00 | 0.00 | 79 | 1012.6 |
| 20260502104021 | 8 | 329 | 6.4 | 14.5 | 0.00 | 0.00 | 0.00 | 78 | 1012.5 |
| 20260502103922 | 8 | 355 | 6.4 | 14.5 | 0.00 | 0.00 | 0.00 | 79 | 1012.5 |
| 20260502103819 | 8 | 319 | 6.4 | 14.5 | 0.00 | 0.00 | 0.00 | 78 | 1012.4 |
| 20260502103718 | 8 | 322 | 6.4 | 11.3 | 0.00 | 0.00 | 0.00 | 78 | 1012.4 |
| 20260502103618 | 8 | 311 | 4.8 | 11.3 | 0.00 | 0.00 | 0.00 | 78 | 1012.5 |
| 20260502103513 | 8 | 311 | 4.8 | 11.3 | 0.00 | 0.00 | 0.00 | 78 | 1012.4 |
| 20260502103413 | 8 | 15 | 4.8 | 11.3 | 0.00 | 0.00 | 0.00 | 78 | 1012.4 |
| 20260502103313 | 8 | 34 | 4.8 | 8.0 | 0.00 | 0.00 | 0.00 | 78 | 1012.4 |
| 20260502103214 | 8 | 355 | 4.8 | 8.0 | 0.00 | 0.00 | 0.00 | 78 | 1012.4 |
| 20260502103111 | 8 | 0 | 4.8 | 8.0 | 0.00 | 0.00 | 0.00 | 78 | 1012.3 |
| 20260502103008 | 8 | 351 | 4.8 | 8.0 | 0.00 | 0.00 | 0.00 | 79 | 1012.3 |
| 20260502102905 | 8 | 355 | 4.8 | 8.0 | 0.00 | 0.00 | 0.00 | 79 | 1012.3 |
| 20260502102806 | 8 | 323 | 4.8 | 11.3 | 0.00 | 0.00 | 0.00 | 79 | 1012.4 |
| 20260502102706 | 8 | 313 | 4.8 | 11.3 | 0.00 | 0.00 | 0.00 | 79 | 1012.4 |
| 20260502102605 | 8 | 308 | 4.8 | 11.3 | 0.00 | 0.00 | 0.00 | 78 | 1012.4 |
| 20260502102455 | 8 | 331 | 6.4 | 11.3 | 0.00 | 0.00 | 0.00 | 79 | 1012.4 |
| 20260502102355 | 8 | 327 | 6.4 | 11.3 | 0.00 | 0.00 | 0.00 | 78 | 1012.4 |
| 20260502102256 | 8 | 332 | 6.4 | 11.3 | 0.00 | 0.00 | 0.00 | 78 | 1012.4 |
| 20260502102155 | 8 | 332 | 6.4 | 11.3 | 0.00 | 0.00 | 0.00 | 78 | 1012.4 |
| 20260502102055 | 8 | 333 | 6.4 | 11.3 | 0.00 | 0.00 | 0.00 | 78 | 1012.4 |
| 20260502101952 | 8 | 326 | 4.8 | 11.3 | 0.00 | 0.00 | 0.00 | 78 | 1012.4 |
| 20260502101848 | 8 | 306 | 4.8 | 11.3 | 0.00 | 0.00 | 0.00 | 78 | 1012.3 |
| 20260502101749 | 9 | 325 | 4.8 | 9.7 | 0.00 | 0.00 | 0.00 | 78 | 1012.3 |
| 20260502101649 | 9 | 310 | 4.8 | 9.7 | 0.00 | 0.00 | 0.00 | 78 | 1012.2 |
| 20260502101549 | 9 | 333 | 4.8 | 9.7 | 0.00 | 0.00 | 0.00 | 78 | 1012.2 |
| 20260502101444 | 9 | 331 | 4.8 | 9.7 | 0.00 | 0.00 | 0.00 | 78 | 1012.3 |
| 20260502101342 | 9 | 355 | 4.8 | 9.7 | 0.00 | 0.00 | 0.00 | 78 | 1012.2 |
| 20260502101244 | 9 | 355 | 4.8 | 9.7 | 0.00 | 0.00 | 0.00 | 78 | 1012.3 |
| 20260502101144 | 9 | 341 | 4.8 | 9.7 | 0.00 | 0.00 | 0.00 | 78 | 1012.3 |
| 20260502101044 | 9 | 338 | 4.8 | 9.7 | 0.00 | 0.00 | 0.00 | 78 | 1012.3 |
| 20260502100935 | 9 | 333 | 4.8 | 9.7 | 0.00 | 0.00 | 0.00 | 78 | 1012.3 |
| 20260502100835 | 9 | 355 | 4.8 | 9.7 | 0.00 | 0.00 | 0.00 | 78 | 1012.2 |
| 20260502100735 | 9 | 325 | 6.4 | 14.5 | 0.00 | 0.00 | 0.00 | 78 | 1012.2 |
| 20260502100636 | 9 | 310 | 6.4 | 14.5 | 0.00 | 0.00 | 0.00 | 78 | 1012.3 |
| 20260502100534 | 9 | 327 | 6.4 | 14.5 | 0.00 | 0.00 | 0.00 | 78 | 1012.4 |
| 20260502100433 | 9 | 328 | 6.4 | 14.5 | 0.00 | 0.00 | 0.00 | 78 | 1012.4 |
| 20260502100330 | 9 | 313 | 8.0 | 14.5 | 0.00 | 0.00 | 0.00 | 77 | 1012.5 |
| 20260502100230 | 9 | 300 | 8.0 | 14.5 | 0.00 | 0.00 | 0.00 | 78 | 1012.5 |
| 20260502100130 | 9 | 328 | 8.0 | 14.5 | 0.00 | 0.00 | 0.00 | 77 | 1012.5 |
| 20260502091522 | 9 | 318 | 8.0 | 12.9 | 0.00 | 0.00 | 0.00 | 78 | 1012.9 |
| 20260502091422 | 9 | 328 | 8.0 | 12.9 | 0.00 | 0.00 | 0.00 | 78 | 1012.9 |
| 20260502091322 | 9 | 325 | 6.4 | 12.9 | 0.00 | 0.00 | 0.00 | 79 | 1012.9 |
| 20260502091218 | 9 | 293 | 6.4 | 12.9 | 0.00 | 0.00 | 0.00 | 79 | 1012.9 |
| 20260502091117 | 9 | 299 | 6.4 | 12.9 | 0.00 | 0.00 | 0.00 | 79 | 1012.9 |
| 20260502091018 | 9 | 299 | 6.4 | 11.3 | 0.00 | 0.00 | 0.00 | 79 | 1013.0 |
| 20260502090915 | 9 | 318 | 6.4 | 11.3 | 0.00 | 0.00 | 0.00 | 79 | 1013.0 |
| 20260502090804 | 9 | 317 | 6.4 | 11.3 | 0.00 | 0.00 | 0.00 | 79 | 1013.0 |
| 20260502090706 | 10 | 328 | 6.4 | 11.3 | 0.00 | 0.00 | 0.00 | 79 | 1012.9 |
| 20260502090606 | 10 | 338 | 6.4 | 11.3 | 0.00 | 0.00 | 0.00 | 79 | 1012.9 |
| 20260502090505 | 10 | 312 | 6.4 | 12.9 | 0.00 | 0.00 | 0.00 | 79 | 1012.9 |
| 20260502090405 | 10 | 321 | 6.4 | 14.5 | 0.00 | 0.00 | 0.00 | 79 | 1012.8 |
| 20260502090302 | 10 | 309 | 6.4 | 14.5 | 0.00 | 0.00 | 0.00 | 79 | 1012.8 |
| 20260502090200 | 10 | 331 | 6.4 | 14.5 | 0.00 | 0.00 | 0.00 | 79 | 1012.6 |
| 20260502071525 | 10 | 337 | 4.8 | 12.9 | 0.00 | 0.00 | 0.00 | 80 | 1012.2 |
| 20260502071424 | 10 | 332 | 4.8 | 12.9 | 0.00 | 0.00 | 0.00 | 80 | 1012.1 |
| 20260502071325 | 10 | 311 | 4.8 | 12.9 | 0.00 | 0.00 | 0.00 | 80 | 1012.1 |
| 20260502071226 | 10 | 327 | 4.8 | 12.9 | 0.00 | 0.00 | 0.00 | 80 | 1012.1 |
| 20260502071125 | 10 | 341 | 4.8 | 12.9 | 0.00 | 0.00 | 0.00 | 80 | 1012.0 |
| 20260502071021 | 10 | 323 | 3.2 | 8.0 | 0.00 | 0.00 | 0.00 | 80 | 1012.0 |
| 20260502070919 | 10 | 348 | 3.2 | 8.0 | 0.00 | 0.00 | 0.00 | 80 | 1012.0 |
| 20260502070818 | 10 | 333 | 3.2 | 8.0 | 0.00 | 0.00 | 0.00 | 80 | 1011.8 |
| 20260502070720 | 10 | 329 | 3.2 | 8.0 | 0.00 | 0.00 | 0.00 | 80 | 1012.0 |
| 20260502070619 | 10 | 326 | 3.2 | 8.0 | 0.00 | 0.00 | 0.00 | 80 | 1011.8 |
| 20260502070509 | 10 | 327 | 3.2 | 8.0 | 0.00 | 0.00 | 0.00 | 80 | 1011.8 |
| 20260502070408 | 10 | 323 | 3.2 | 8.0 | 0.00 | 0.00 | 0.00 | 80 | 1011.8 |
| 20260502070310 | 10 | 344 | 3.2 | 8.0 | 0.00 | 0.00 | 0.00 | 80 | 1011.7 |
| 20260502070210 | 10 | 346 | 3.2 | 8.0 | 0.00 | 0.00 | 0.00 | 80 | 1011.8 |
| 20260502070110 | 10 | 346 | 3.2 | 8.0 | 0.00 | 0.00 | 0.00 | 80 | 1012.0 |
| 20260502070002 | 10 | 11 | 3.2 | 6.4 | 0.00 | 0.00 | 0.00 | 80 | 1012.0 |
| 20260502065903 | 10 | 13 | 3.2 | 6.4 | 0.00 | 0.00 | 0.00 | 81 | 1012.0 |
| 20260502065803 | 10 | 12 | 3.2 | 4.8 | 0.00 | 0.00 | 0.00 | 81 | 1011.8 |
| 20260502065704 | 10 | 12 | 3.2 | 4.8 | 0.00 | 0.00 | 0.00 | 80 | 1011.8 |
| 20260502065604 | 10 | 14 | 3.2 | 4.8 | 0.00 | 0.00 | 0.00 | 80 | 1011.8 |
| 20260502065503 | 10 | 14 | 3.2 | 4.8 | 0.00 | 0.00 | 0.00 | 80 | 1011.8 |
| 20260502065402 | 10 | 14 | 3.2 | 4.8 | 0.00 | 0.00 | 0.00 | 80 | 1011.8 |
| 20260502065306 | 10 | 5 | 3.2 | 4.8 | 0.00 | 0.00 | 0.00 | 80 | 1011.8 |
| 20260502065203 | 10 | 5 | 3.2 | 4.8 | 0.00 | 0.00 | 0.00 | 81 | 1012.0 |
| 20260502065103 | 10 | 15 | 1.6 | 4.8 | 0.00 | 0.00 | 0.00 | 80 | 1012.0 |
| 20260502065004 | 10 | 15 | 1.6 | 4.8 | 0.00 | 0.00 | 0.00 | 80 | 1012.0 |
| 20260502064903 | 10 | 15 | 1.6 | 4.8 | 0.00 | 0.00 | 0.00 | 81 | 1012.0 |
| 20260502064802 | 10 | 15 | 1.6 | 4.8 | 0.00 | 0.00 | 0.00 | 81 | 1012.0 |
| 20260502064702 | 10 | 14 | 1.6 | 4.8 | 0.00 | 0.00 | 0.00 | 81 | 1012.0 |
| 20260502064602 | 10 | 14 | 1.6 | 4.8 | 0.00 | 0.00 | 0.00 | 81 | 1012.1 |
| 20260502064503 | 10 | 14 | 1.6 | 4.8 | 0.00 | 0.00 | 0.00 | 81 | 1012.1 |
| 20260502064404 | 10 | 14 | 1.6 | 4.8 | 0.00 | 0.00 | 0.00 | 81 | 1012.1 |
| 20260502064300 | 10 | 14 | 1.6 | 6.4 | 0.00 | 0.00 | 0.00 | 81 | 1012.2 |
| 20260502064156 | 10 | 14 | 3.2 | 6.4 | 0.00 | 0.00 | 0.00 | 81 | 1012.2 |
| 20260502064056 | 10 | 14 | 3.2 | 6.4 | 0.00 | 0.00 | 0.00 | 81 | 1012.2 |
| 20260502063957 | 10 | 14 | 3.2 | 6.4 | 0.00 | 0.00 | 0.00 | 81 | 1012.2 |
| 20260502063857 | 10 | 14 | 3.2 | 6.4 | 0.00 | 0.00 | 0.00 | 81 | 1012.2 |
| 20260502063754 | 10 | 5 | 3.2 | 6.4 | 0.00 | 0.00 | 0.00 | 81 | 1012.1 |
| 20260502063650 | 10 | 38 | 3.2 | 6.4 | 0.00 | 0.00 | 0.00 | 81 | 1012.2 |
| 20260502063551 | 10 | 38 | 1.6 | 6.4 | 0.00 | 0.00 | 0.00 | 81 | 1012.2 |
| 20260502063450 | 10 | 38 | 1.6 | 6.4 | 0.00 | 0.00 | 0.00 | 81 | 1012.2 |
| 20260502063348 | 10 | 38 | 1.6 | 6.4 | 0.00 | 0.00 | 0.00 | 81 | 1012.3 |
| 20260502063249 | 10 | 11 | 1.6 | 4.8 | 0.00 | 0.00 | 0.00 | 81 | 1012.2 |
| 20260502063149 | 10 | 5 | 1.6 | 4.8 | 0.00 | 0.00 | 0.00 | 81 | 1012.2 |
| 20260502063048 | 10 | 5 | 1.6 | 4.8 | 0.00 | 0.00 | 0.00 | 81 | 1012.3 |
| 20260502062946 | 10 | 5 | 1.6 | 8.0 | 0.00 | 0.00 | 0.00 | 81 | 1012.4 |
| 20260502062848 | 10 | 5 | 1.6 | 8.0 | 0.00 | 0.00 | 0.00 | 81 | 1012.4 |
| 20260502062746 | 10 | 5 | 1.6 | 8.0 | 0.00 | 0.00 | 0.00 | 81 | 1012.4 |
| 20260502062646 | 10 | 9 | 3.2 | 8.0 | 0.00 | 0.00 | 0.00 | 80 | 1012.4 |
| 20260502062548 | 11 | 10 | 3.2 | 8.0 | 0.00 | 0.00 | 0.00 | 80 | 1012.4 |
| 20260502062446 | 11 | 10 | 3.2 | 8.0 | 0.00 | 0.00 | 0.00 | 80 | 1012.4 |
| 20260502062342 | 11 | 0 | 4.8 | 8.0 | 0.00 | 0.00 | 0.00 | 80 | 1012.5 |
| 20260502062243 | 11 | 0 | 4.8 | 12.9 | 0.00 | 0.00 | 0.00 | 80 | 1012.4 |
| 20260502062143 | 11 | 10 | 4.8 | 12.9 | 0.00 | 0.00 | 0.00 | 80 | 1012.4 |
| 20260502062043 | 11 | 5 | 6.4 | 12.9 | 0.00 | 0.00 | 0.00 | 80 | 1012.5 |
| 20260502061942 | 11 | 0 | 6.4 | 19.3 | 0.00 | 0.00 | 0.00 | 80 | 1012.5 |
| 20260502061841 | 11 | 5 | 6.4 | 19.3 | 0.00 | 0.00 | 0.00 | 80 | 1012.5 |
| 20260502061741 | 11 | 18 | 8.0 | 19.3 | 0.00 | 0.00 | 0.00 | 80 | 1012.6 |
| 20260502061641 | 11 | 5 | 8.0 | 19.3 | 0.00 | 0.00 | 0.00 | 80 | 1012.5 |
| 20260502061540 | 11 | 5 | 8.0 | 19.3 | 0.00 | 0.00 | 0.00 | 80 | 1012.6 |
| 20260502061439 | 11 | 355 | 8.0 | 19.3 | 0.00 | 0.00 | 0.00 | 80 | 1012.5 |
| 20260502061339 | 11 | 329 | 9.7 | 19.3 | 0.00 | 0.00 | 0.00 | 80 | 1012.6 |
| 20260502061239 | 11 | 318 | 9.7 | 19.3 | 0.00 | 0.00 | 0.00 | 80 | 1012.6 |
| 20260502061139 | 11 | 334 | 9.7 | 19.3 | 0.00 | 0.00 | 0.00 | 80 | 1012.6 |
| 20260502061038 | 11 | 333 | 9.7 | 19.3 | 0.00 | 0.00 | 0.00 | 80 | 1012.6 |
| 20260502060940 | 11 | 317 | 9.7 | 16.1 | 0.00 | 0.00 | 0.00 | 80 | 1012.6 |
| 20260502060838 | 11 | 329 | 9.7 | 16.1 | 0.00 | 0.00 | 0.00 | 80 | 1012.6 |
| 20260502060739 | 11 | 338 | 9.7 | 16.1 | 0.00 | 0.00 | 0.00 | 80 | 1012.6 |
| 20260502060638 | 11 | 318 | 9.7 | 16.1 | 0.00 | 0.00 | 0.00 | 80 | 1012.5 |
| 20260502060538 | 11 | 325 | 9.7 | 16.1 | 0.00 | 0.00 | 0.00 | 80 | 1012.5 |
| 20260502060439 | 11 | 346 | 9.7 | 16.1 | 0.00 | 0.00 | 0.00 | 80 | 1012.5 |
| 20260502060334 | 11 | 317 | 9.7 | 16.1 | 0.00 | 0.00 | 0.00 | 80 | 1012.5 |
| 20260502060234 | 11 | 321 | 9.7 | 16.1 | 0.00 | 0.00 | 0.00 | 80 | 1012.5 |
| 20260502060134 | 11 | 288 | 9.7 | 16.1 | 0.00 | 0.00 | 0.00 | 80 | 1012.6 |
| 20260502060034 | 11 | 327 | 9.7 | 16.1 | 0.00 | 0.00 | 0.00 | 80 | 1012.6 |
| 20260502055935 | 11 | 299 | 8.0 | 16.1 | 0.00 | 0.00 | 0.00 | 81 | 1012.6 |
| 20260502055834 | 11 | 313 | 8.0 | 16.1 | 0.00 | 0.00 | 0.00 | 81 | 1012.6 |
| 20260502055735 | 11 | 300 | 8.0 | 16.1 | 0.00 | 0.00 | 0.00 | 81 | 1012.6 |
| 20260502055634 | 11 | 321 | 9.7 | 16.1 | 0.00 | 0.00 | 0.00 | 80 | 1012.5 |
| 20260502055536 | 11 | 325 | 9.7 | 16.1 | 0.00 | 0.00 | 0.00 | 80 | 1012.6 |
| 20260502055432 | 11 | 313 | 9.7 | 16.1 | 0.00 | 0.00 | 0.00 | 80 | 1012.6 |
| 20260502055333 | 11 | 315 | 9.7 | 16.1 | 0.00 | 0.00 | 0.00 | 80 | 1012.7 |
| 20260502055232 | 11 | 322 | 9.7 | 16.1 | 0.00 | 0.00 | 0.00 | 80 | 1012.8 |
| 20260502055132 | 11 | 305 | 9.7 | 16.1 | 0.00 | 0.00 | 0.00 | 80 | 1012.7 |
| 20260502055032 | 11 | 321 | 8.0 | 16.1 | 0.00 | 0.00 | 0.00 | 80 | 1012.7 |
| 20260502054934 | 11 | 306 | 8.0 | 16.1 | 0.00 | 0.00 | 0.00 | 80 | 1012.8 |
| 20260502054834 | 11 | 322 | 8.0 | 16.1 | 0.00 | 0.00 | 0.00 | 80 | 1012.8 |
| 20260502054731 | 11 | 286 | 8.0 | 16.1 | 0.00 | 0.00 | 0.00 | 80 | 1012.8 |
| 20260502054626 | 11 | 308 | 6.4 | 16.1 | 0.00 | 0.00 | 0.00 | 80 | 1012.8 |
| 20260502054528 | 11 | 314 | 6.4 | 16.1 | 0.00 | 0.00 | 0.00 | 81 | 1012.7 |
| 20260502054324 | 11 | 323 | 4.8 | 16.1 | 0.00 | 0.00 | 0.00 | 82 | 1012.8 |
| 20260502054225 | 11 | 313 | 4.8 | 16.1 | 0.00 | 0.00 | 0.00 | 82 | 1012.8 |
| 20260502054124 | 11 | 307 | 3.2 | 9.7 | 0.00 | 0.00 | 0.00 | 83 | 1012.8 |
| 20260502054025 | 11 | 313 | 3.2 | 9.7 | 0.00 | 0.00 | 0.00 | 83 | 1012.8 |
| 20260502053925 | 11 | 313 | 3.2 | 9.7 | 0.00 | 0.00 | 0.00 | 84 | 1012.8 |
| 20260502053825 | 11 | 275 | 3.2 | 9.7 | 0.00 | 0.00 | 0.00 | 84 | 1012.8 |
| 20260502053724 | 11 | 266 | 1.6 | 9.7 | 0.00 | 0.00 | 0.00 | 84 | 1012.8 |
| 20260502053624 | 11 | 279 | 1.6 | 4.8 | 0.00 | 0.00 | 0.00 | 84 | 1012.6 |
| 20260502053525 | 11 | 274 | 1.6 | 4.8 | 0.00 | 0.00 | 0.00 | 84 | 1012.7 |
| 20260502053420 | 11 | 274 | 1.6 | 4.8 | 0.00 | 0.00 | 0.00 | 84 | 1012.6 |
| 20260502053321 | 11 | 274 | 1.6 | 4.8 | 0.00 | 0.00 | 0.00 | 84 | 1012.6 |
| 20260502053221 | 11 | 277 | 1.6 | 3.2 | 0.00 | 0.00 | 0.00 | 84 | 1012.6 |
| 20260502053121 | 11 | 277 | 1.6 | 3.2 | 0.00 | 0.00 | 0.00 | 84 | 1012.6 |
| 20260502053021 | 11 | 277 | 1.6 | 3.2 | 0.00 | 0.00 | 0.00 | 84 | 1012.6 |
| 20260502052921 | 11 | 277 | 1.6 | 3.2 | 0.00 | 0.00 | 0.00 | 84 | 1012.7 |
| 20260502052819 | 11 | 277 | 0.0 | 3.2 | 0.00 | 0.00 | 0.00 | 83 | 1012.7 |
| 20260502052719 | 11 | 277 | 0.0 | 14.5 | 0.00 | 0.00 | 0.00 | 83 | 1012.7 |
| 20260502052618 | 11 | 277 | 1.6 | 14.5 | 0.00 | 0.00 | 0.00 | 83 | 1012.8 |
| 20260502052519 | 11 | 277 | 1.6 | 14.5 | 0.00 | 0.00 | 0.00 | 83 | 1012.8 |
| 20260502052419 | 11 | 278 | 1.6 | 14.5 | 0.00 | 0.00 | 0.00 | 83 | 1012.8 |
| 20260502052318 | 11 | 278 | 1.6 | 14.5 | 0.00 | 0.00 | 0.00 | 83 | 1012.8 |
| 20260502052218 | 11 | 278 | 3.2 | 14.5 | 0.00 | 0.00 | 0.00 | 83 | 1012.8 |
| 20260502052120 | 11 | 278 | 3.2 | 14.5 | 0.00 | 0.00 | 0.00 | 83 | 1012.8 |
| 20260502052018 | 11 | 278 | 4.8 | 14.5 | 0.00 | 0.00 | 0.00 | 83 | 1012.7 |
| 20260502051920 | 11 | 284 | 4.8 | 14.5 | 0.00 | 0.00 | 0.00 | 83 | 1012.8 |
| 20260502051818 | 11 | 284 | 6.4 | 14.5 | 0.00 | 0.00 | 0.00 | 83 | 1012.7 |
| 20260502051720 | 11 | 288 | 6.4 | 14.5 | 0.00 | 0.00 | 0.00 | 83 | 1012.8 |
| 20260502051619 | 11 | 291 | 8.0 | 14.5 | 0.00 | 0.00 | 0.00 | 83 | 1012.7 |
| 20260502051519 | 11 | 324 | 8.0 | 14.5 | 0.00 | 0.00 | 0.00 | 83 | 1012.7 |
| 20260502051419 | 11 | 298 | 8.0 | 14.5 | 0.00 | 0.00 | 0.00 | 83 | 1012.7 |
| 20260502051319 | 11 | 319 | 8.0 | 14.5 | 0.00 | 0.00 | 0.00 | 83 | 1012.7 |
| 20260502051218 | 11 | 332 | 8.0 | 14.5 | 0.00 | 0.00 | 0.00 | 83 | 1012.7 |
| 20260502051118 | 11 | 330 | 8.0 | 14.5 | 0.00 | 0.00 | 0.00 | 83 | 1012.6 |
| 20260502051020 | 11 | 302 | 8.0 | 14.5 | 0.00 | 0.00 | 0.00 | 83 | 1012.5 |
| 20260502050920 | 11 | 309 | 8.0 | 14.5 | 0.00 | 0.00 | 0.00 | 82 | 1012.6 |
| 20260502050818 | 11 | 317 | 8.0 | 14.5 | 0.00 | 0.00 | 0.00 | 82 | 1012.6 |
| 20260502050719 | 11 | 276 | 8.0 | 14.5 | 0.00 | 0.00 | 0.00 | 82 | 1012.6 |
| 20260502050619 | 11 | 302 | 8.0 | 14.5 | 0.00 | 0.00 | 0.00 | 82 | 1012.6 |
| 20260502050519 | 11 | 319 | 8.0 | 14.5 | 0.00 | 0.00 | 0.00 | 82 | 1012.6 |
| 20260502050418 | 11 | 308 | 8.0 | 14.5 | 0.00 | 0.00 | 0.00 | 82 | 1012.6 |
| 20260502050319 | 11 | 320 | 6.4 | 14.5 | 0.00 | 0.00 | 0.00 | 82 | 1012.6 |
| 20260502050219 | 11 | 314 | 6.4 | 14.5 | 0.00 | 0.00 | 0.00 | 82 | 1012.6 |
| 20260502050116 | 11 | 285 | 4.8 | 14.5 | 0.00 | 0.00 | 0.00 | 82 | 1012.6 |
| 20260502050016 | 11 | 318 | 4.8 | 14.5 | 0.00 | 0.00 | 0.00 | 82 | 1012.6 |
| 20260502045915 | 11 | 331 | 3.2 | 14.5 | 0.00 | 0.00 | 0.00 | 82 | 1012.6 |
| 20260502045814 | 11 | 317 | 3.2 | 12.9 | 0.00 | 0.00 | 0.00 | 81 | 1012.5 |
| 20260502045715 | 11 | 333 | 1.6 | 12.9 | 0.00 | 0.00 | 0.00 | 81 | 1012.6 |
| 20260502045614 | 11 | 350 | 0.0 | 12.9 | 0.00 | 0.00 | 0.00 | 81 | 1012.5 |
| 20260502045515 | 11 | 323 | 0.0 | 4.8 | 0.00 | 0.00 | 0.00 | 81 | 1012.6 |
| 20260502045415 | 11 | 177 | 0.0 | 4.8 | 0.00 | 0.00 | 0.00 | 81 | 1012.5 |
| 20260502045316 | 11 | 177 | 0.0 | 4.8 | 0.00 | 0.00 | 0.00 | 81 | 1012.5 |
| 20260502045216 | 11 | 177 | 0.0 | 4.8 | 0.00 | 0.00 | 0.00 | 81 | 1012.4 |
| 20260502045116 | 11 | 177 | 1.6 | 4.8 | 0.00 | 0.00 | 0.00 | 81 | 1012.4 |
| 20260502045014 | 11 | 177 | 1.6 | 4.8 | 0.00 | 0.00 | 0.00 | 81 | 1012.4 |
| 20260502044916 | 11 | 177 | 1.6 | 4.8 | 0.00 | 0.00 | 0.00 | 81 | 1012.4 |
| 20260502044814 | 11 | 177 | 1.6 | 4.8 | 0.00 | 0.00 | 0.00 | 81 | 1012.3 |
| 20260502044716 | 11 | 177 | 1.6 | 4.8 | 0.00 | 0.00 | 0.00 | 81 | 1012.4 |
| 20260502044614 | 11 | 177 | 1.6 | 4.8 | 0.00 | 0.00 | 0.00 | 81 | 1012.5 |
| 20260502044515 | 11 | 177 | 1.6 | 4.8 | 0.00 | 0.00 | 0.00 | 81 | 1012.4 |
| 20260502044414 | 11 | 177 | 1.6 | 4.8 | 0.00 | 0.00 | 0.00 | 81 | 1012.4 |
| 20260502044314 | 11 | 176 | 1.6 | 4.8 | 0.00 | 0.00 | 0.00 | 82 | 1012.4 |
| 20260502044214 | 11 | 176 | 1.6 | 4.8 | 0.00 | 0.00 | 0.00 | 81 | 1012.4 |
| 20260502044114 | 11 | 176 | 1.6 | 4.8 | 0.00 | 0.00 | 0.00 | 81 | 1012.4 |
| 20260502044014 | 11 | 176 | 1.6 | 4.8 | 0.00 | 0.00 | 0.00 | 81 | 1012.4 |
| 20260502043914 | 11 | 176 | 1.6 | 4.8 | 0.00 | 0.00 | 0.00 | 81 | 1012.4 |
| 20260502043814 | 11 | 176 | 1.6 | 4.8 | 0.00 | 0.00 | 0.00 | 81 | 1012.4 |
| 20260502043714 | 11 | 176 | 1.6 | 4.8 | 0.00 | 0.00 | 0.00 | 81 | 1012.4 |
| 20260502043616 | 11 | 176 | 1.6 | 4.8 | 0.00 | 0.00 | 0.00 | 82 | 1012.4 |
| 20260502043515 | 11 | 176 | 1.6 | 4.8 | 0.00 | 0.00 | 0.00 | 82 | 1012.4 |
| 20260502043415 | 11 | 176 | 1.6 | 4.8 | 0.00 | 0.00 | 0.00 | 81 | 1012.4 |
| 20260502043316 | 11 | 176 | 1.6 | 4.8 | 0.00 | 0.00 | 0.00 | 81 | 1012.5 |
| 20260502043215 | 11 | 176 | 1.6 | 4.8 | 0.00 | 0.00 | 0.00 | 81 | 1012.5 |
| 20260502043014 | 11 | 173 | 1.6 | 4.8 | 0.00 | 0.00 | 0.00 | 81 | 1012.5 |
| 20260502042916 | 11 | 173 | 1.6 | 4.8 | 0.00 | 0.00 | 0.00 | 81 | 1012.6 |
| 20260502042812 | 11 | 173 | 1.6 | 4.8 | 0.00 | 0.00 | 0.00 | 81 | 1012.6 |
| 20260502042711 | 11 | 173 | 1.6 | 4.8 | 0.00 | 0.00 | 0.00 | 81 | 1012.5 |
| 20260502042612 | 11 | 174 | 1.6 | 4.8 | 0.00 | 0.00 | 0.00 | 81 | 1012.5 |
| 20260502042511 | 11 | 173 | 1.6 | 4.8 | 0.00 | 0.00 | 0.00 | 81 | 1012.5 |
| 20260502042411 | 11 | 173 | 1.6 | 4.8 | 0.00 | 0.00 | 0.00 | 82 | 1012.5 |
| 20260502042310 | 11 | 173 | 1.6 | 4.8 | 0.00 | 0.00 | 0.00 | 82 | 1012.5 |
| 20260502042212 | 11 | 173 | 1.6 | 4.8 | 0.00 | 0.00 | 0.00 | 82 | 1012.5 |
| 20260502042110 | 11 | 173 | 1.6 | 4.8 | 0.00 | 0.00 | 0.00 | 81 | 1012.4 |
| 20260502042011 | 11 | 173 | 1.6 | 4.8 | 0.00 | 0.00 | 0.00 | 82 | 1012.4 |
| 20260502041910 | 11 | 173 | 1.6 | 3.2 | 0.00 | 0.00 | 0.00 | 82 | 1012.5 |
| 20260502041810 | 11 | 173 | 1.6 | 3.2 | 0.00 | 0.00 | 0.00 | 82 | 1012.4 |
| 20260502041711 | 11 | 173 | 1.6 | 3.2 | 0.00 | 0.00 | 0.00 | 82 | 1012.4 |
| 20260502041612 | 11 | 173 | 1.6 | 3.2 | 0.00 | 0.00 | 0.00 | 82 | 1012.5 |
| 20260502041510 | 11 | 173 | 1.6 | 4.8 | 0.00 | 0.00 | 0.00 | 82 | 1012.4 |
| 20260502041412 | 11 | 173 | 1.6 | 4.8 | 0.00 | 0.00 | 0.00 | 82 | 1012.5 |
| 20260502041312 | 11 | 173 | 1.6 | 4.8 | 0.00 | 0.00 | 0.00 | 82 | 1012.6 |
| 20260502041210 | 11 | 173 | 1.6 | 4.8 | 0.00 | 0.00 | 0.00 | 82 | 1012.4 |
| 20260502041111 | 11 | 173 | 1.6 | 4.8 | 0.00 | 0.00 | 0.00 | 82 | 1012.4 |
| 20260502041010 | 11 | 173 | 1.6 | 4.8 | 0.00 | 0.00 | 0.00 | 82 | 1012.5 |
| 20260502040911 | 11 | 173 | 1.6 | 4.8 | 0.00 | 0.00 | 0.00 | 82 | 1012.5 |
| 20260502040810 | 11 | 173 | 1.6 | 4.8 | 0.00 | 0.00 | 0.00 | 82 | 1012.4 |
| 20260502040710 | 11 | 173 | 1.6 | 4.8 | 0.00 | 0.00 | 0.00 | 82 | 1012.4 |
| 20260502040612 | 11 | 173 | 3.2 | 4.8 | 0.00 | 0.00 | 0.00 | 82 | 1012.4 |
| 20260502040510 | 11 | 173 | 1.6 | 4.8 | 0.00 | 0.00 | 0.00 | 82 | 1012.4 |
| 20260502040413 | 11 | 173 | 1.6 | 4.8 | 0.00 | 0.00 | 0.00 | 82 | 1012.4 |
| 20260502040311 | 11 | 173 | 1.6 | 4.8 | 0.00 | 0.00 | 0.00 | 82 | 1012.4 |
| 20260502040203 | 11 | 173 | 1.6 | 4.8 | 0.00 | 0.00 | 0.00 | 82 | 1012.4 |
| 20260502040101 | 11 | 173 | 1.6 | 6.4 | 0.00 | 0.00 | 0.00 | 82 | 1012.4 |
| 20260502040000 | 11 | 173 | 1.6 | 6.4 | 0.00 | 0.00 | 0.00 | 82 | 1012.6 |
| 20260502035902 | 11 | 173 | 1.6 | 8.0 | 0.00 | 0.00 | 0.00 | 82 | 1012.6 |
| 20260502035759 | 11 | 173 | 1.6 | 8.0 | 0.00 | 0.00 | 0.00 | 82 | 1012.5 |
| 20260502035654 | 11 | 173 | 1.6 | 8.0 | 0.00 | 0.00 | 0.00 | 82 | 1012.5 |
| 20260502035554 | 11 | 173 | 1.6 | 8.0 | 0.00 | 0.00 | 0.00 | 82 | 1012.6 |
| 20260502035454 | 11 | 173 | 3.2 | 8.0 | 0.00 | 0.00 | 0.00 | 82 | 1012.6 |
| 20260502035354 | 11 | 173 | 3.2 | 8.0 | 0.00 | 0.00 | 0.00 | 82 | 1012.6 |
| 20260502035252 | 11 | 171 | 3.2 | 8.0 | 0.00 | 0.00 | 0.00 | 82 | 1012.6 |
| 20260502035148 | 11 | 171 | 3.2 | 8.0 | 0.00 | 0.00 | 0.00 | 82 | 1012.7 |
| 20260502035045 | 11 | 171 | 3.2 | 8.0 | 0.00 | 0.00 | 0.00 | 82 | 1012.5 |
| 20260502034945 | 11 | 171 | 3.2 | 8.0 | 0.00 | 0.00 | 0.00 | 82 | 1012.5 |
| 20260502034842 | 11 | 178 | 3.2 | 8.0 | 0.00 | 0.00 | 0.00 | 82 | 1012.5 |
| 20260502034743 | 11 | 178 | 3.2 | 8.0 | 0.00 | 0.00 | 0.00 | 82 | 1012.5 |
| 20260502034637 | 11 | 159 | 3.2 | 9.7 | 0.00 | 0.00 | 0.00 | 82 | 1012.6 |
| 20260502034537 | 11 | 159 | 3.2 | 9.7 | 0.00 | 0.00 | 0.00 | 82 | 1012.5 |
| 20260502034436 | 11 | 159 | 3.2 | 9.7 | 0.00 | 0.00 | 0.00 | 82 | 1012.6 |
| 20260502034335 | 11 | 159 | 3.2 | 9.7 | 0.00 | 0.00 | 0.00 | 82 | 1012.5 |
| 20260502034234 | 11 | 159 | 3.2 | 9.7 | 0.00 | 0.00 | 0.00 | 82 | 1012.5 |
| 20260502034129 | 11 | 159 | 3.2 | 9.7 | 0.00 | 0.00 | 0.00 | 82 | 1012.5 |
| 20260502034026 | 11 | 159 | 3.2 | 9.7 | 0.00 | 0.00 | 0.00 | 82 | 1012.5 |
| 20260502033928 | 11 | 159 | 3.2 | 9.7 | 0.00 | 0.00 | 0.00 | 82 | 1012.6 |
| 20260502033825 | 11 | 149 | 3.2 | 9.7 | 0.00 | 0.00 | 0.00 | 82 | 1012.5 |
| 20260502033725 | 11 | 180 | 3.2 | 9.7 | 0.00 | 0.00 | 0.00 | 82 | 1012.5 |
| 20260502033621 | 11 | 178 | 3.2 | 8.0 | 0.00 | 0.00 | 0.00 | 82 | 1012.6 |
| 20260502033518 | 11 | 181 | 3.2 | 9.7 | 0.00 | 0.00 | 0.00 | 82 | 1012.5 |
| 20260502033420 | 11 | 181 | 3.2 | 9.7 | 0.00 | 0.00 | 0.00 | 82 | 1012.5 |
| 20260502033317 | 11 | 181 | 3.2 | 9.7 | 0.00 | 0.00 | 0.00 | 82 | 1012.6 |
| 20260502033217 | 11 | 178 | 3.2 | 9.7 | 0.00 | 0.00 | 0.00 | 82 | 1012.6 |
| 20260502033106 | 11 | 178 | 3.2 | 9.7 | 0.00 | 0.00 | 0.00 | 82 | 1012.7 |
| 20260502033008 | 11 | 178 | 3.2 | 9.7 | 0.00 | 0.00 | 0.00 | 82 | 1012.7 |
| 20260502032907 | 11 | 178 | 4.8 | 9.7 | 0.00 | 0.00 | 0.00 | 82 | 1012.8 |
| 20260502032806 | 11 | 171 | 4.8 | 9.7 | 0.00 | 0.00 | 0.00 | 82 | 1012.7 |
| 20260502032707 | 11 | 171 | 4.8 | 9.7 | 0.00 | 0.00 | 0.00 | 82 | 1012.6 |
| 20260502032600 | 11 | 178 | 4.8 | 9.7 | 0.00 | 0.00 | 0.00 | 82 | 1012.8 |
| 20260502032500 | 11 | 157 | 4.8 | 8.0 | 0.00 | 0.00 | 0.00 | 82 | 1012.8 |
| 20260502032402 | 11 | 157 | 4.8 | 8.0 | 0.00 | 0.00 | 0.00 | 82 | 1012.8 |
| 20260502032300 | 11 | 157 | 4.8 | 8.0 | 0.00 | 0.00 | 0.00 | 82 | 1012.7 |
| 20260502032202 | 11 | 177 | 4.8 | 8.0 | 0.00 | 0.00 | 0.00 | 82 | 1012.8 |
| 20260502032057 | 11 | 178 | 4.8 | 8.0 | 0.00 | 0.00 | 0.00 | 82 | 1012.7 |
| 20260502031957 | 11 | 178 | 4.8 | 9.7 | 0.00 | 0.00 | 0.00 | 82 | 1012.6 |
| 20260502031857 | 11 | 160 | 4.8 | 9.7 | 0.00 | 0.00 | 0.00 | 82 | 1012.7 |
| 20260502031756 | 11 | 165 | 3.2 | 9.7 | 0.00 | 0.00 | 0.00 | 82 | 1012.8 |
| 20260502031657 | 11 | 190 | 4.8 | 9.7 | 0.00 | 0.00 | 0.00 | 82 | 1012.8 |
| 20260502031557 | 11 | 191 | 4.8 | 9.7 | 0.00 | 0.00 | 0.00 | 82 | 1012.8 |
| 20260502031454 | 11 | 224 | 4.8 | 9.7 | 0.00 | 0.00 | 0.00 | 82 | 1012.8 |
| 20260502031355 | 11 | 151 | 3.2 | 9.7 | 0.00 | 0.00 | 0.00 | 82 | 1012.7 |
| 20260502031256 | 11 | 151 | 4.8 | 9.7 | 0.00 | 0.00 | 0.00 | 81 | 1012.8 |
| 20260502031155 | 11 | 151 | 4.8 | 9.7 | 0.00 | 0.00 | 0.00 | 81 | 1012.8 |
| 20260502031054 | 11 | 151 | 4.8 | 9.7 | 0.00 | 0.00 | 0.00 | 81 | 1012.8 |
| 20260502030956 | 11 | 153 | 4.8 | 8.0 | 0.00 | 0.00 | 0.00 | 81 | 1012.8 |
| 20260502030850 | 11 | 155 | 4.8 | 11.3 | 0.00 | 0.00 | 0.00 | 81 | 1012.9 |
| 20260502030750 | 11 | 155 | 4.8 | 11.3 | 0.00 | 0.00 | 0.00 | 81 | 1012.9 |
| 20260502030648 | 11 | 156 | 4.8 | 11.3 | 0.00 | 0.00 | 0.00 | 81 | 1012.9 |
| 20260502030550 | 11 | 134 | 4.8 | 11.3 | 0.00 | 0.00 | 0.00 | 81 | 1013.0 |
| 20260502030448 | 11 | 192 | 4.8 | 11.3 | 0.00 | 0.00 | 0.00 | 81 | 1012.9 |
| 20260502030348 | 11 | 165 | 4.8 | 11.3 | 0.00 | 0.00 | 0.00 | 81 | 1012.9 |
| 20260502030249 | 11 | 165 | 4.8 | 11.3 | 0.00 | 0.00 | 0.00 | 81 | 1013.0 |
| 20260502030149 | 11 | 164 | 4.8 | 11.3 | 0.00 | 0.00 | 0.00 | 81 | 1012.9 |
| 20260502030048 | 11 | 165 | 4.8 | 11.3 | 0.00 | 0.00 | 0.00 | 81 | 1013.0 |
| 20260502025948 | 11 | 165 | 3.2 | 11.3 | 0.00 | 0.00 | 0.00 | 81 | 1013.0 |
| 20260502025849 | 11 | 156 | 3.2 | 9.7 | 0.00 | 0.00 | 0.00 | 81 | 1013.0 |
| 20260502025748 | 12 | 157 | 3.2 | 9.7 | 0.00 | 0.00 | 0.00 | 81 | 1013.0 |
| 20260502025648 | 12 | 171 | 3.2 | 8.0 | 0.00 | 0.00 | 0.00 | 81 | 1013.0 |
| 20260502025548 | 12 | 172 | 3.2 | 8.0 | 0.00 | 0.00 | 0.00 | 81 | 1013.0 |
| 20260502025450 | 12 | 172 | 4.8 | 14.5 | 0.00 | 0.00 | 0.00 | 81 | 1013.0 |
| 20260502025348 | 12 | 172 | 4.8 | 14.5 | 0.00 | 0.00 | 0.00 | 80 | 1013.1 |
| 20260502025249 | 12 | 172 | 4.8 | 14.5 | 0.00 | 0.00 | 0.00 | 80 | 1013.0 |
| 20260502025149 | 12 | 172 | 4.8 | 14.5 | 0.00 | 0.00 | 0.00 | 80 | 1013.0 |
| 20260502025052 | 12 | 172 | 4.8 | 14.5 | 0.00 | 0.00 | 0.00 | 80 | 1013.0 |
| 20260502024944 | 12 | 173 | 4.8 | 14.5 | 0.00 | 0.00 | 0.00 | 80 | 1013.1 |
| 20260502024846 | 12 | 173 | 4.8 | 14.5 | 0.00 | 0.00 | 0.00 | 80 | 1013.1 |
| 20260502024744 | 12 | 175 | 4.8 | 14.5 | 0.00 | 0.00 | 0.00 | 80 | 1013.1 |
| 20260502024649 | 12 | 175 | 4.8 | 14.5 | 0.00 | 0.00 | 0.00 | 80 | 1013.1 |
| 20260502024542 | 12 | 174 | 3.2 | 14.5 | 0.00 | 0.00 | 0.00 | 80 | 1013.1 |
| 20260502024442 | 12 | 187 | 3.2 | 9.7 | 0.00 | 0.00 | 0.00 | 80 | 1013.1 |
| 20260502024343 | 12 | 162 | 3.2 | 9.7 | 0.00 | 0.00 | 0.00 | 80 | 1013.0 |
| 20260502024242 | 12 | 161 | 3.2 | 9.7 | 0.00 | 0.00 | 0.00 | 80 | 1013.1 |
| 20260502024143 | 12 | 164 | 1.6 | 9.7 | 0.00 | 0.00 | 0.00 | 80 | 1013.0 |
| 20260502024043 | 12 | 208 | 1.6 | 9.7 | 0.00 | 0.00 | 0.00 | 80 | 1013.0 |
| 20260502023942 | 12 | 211 | 1.6 | 6.4 | 0.00 | 0.00 | 0.00 | 79 | 1013.0 |
| 20260502023842 | 12 | 206 | 1.6 | 6.4 | 0.00 | 0.00 | 0.00 | 79 | 1013.0 |
| 20260502023743 | 12 | 206 | 1.6 | 6.4 | 0.00 | 0.00 | 0.00 | 79 | 1013.0 |
| 20260502023644 | 12 | 206 | 1.6 | 6.4 | 0.00 | 0.00 | 0.00 | 79 | 1013.0 |
| 20260502023544 | 12 | 206 | 3.2 | 14.5 | 0.00 | 0.00 | 0.00 | 79 | 1013.0 |
| 20260502023442 | 12 | 207 | 3.2 | 14.5 | 0.00 | 0.00 | 0.00 | 79 | 1012.9 |
| 20260502023344 | 12 | 207 | 3.2 | 14.5 | 0.00 | 0.00 | 0.00 | 79 | 1012.9 |
| 20260502023242 | 12 | 227 | 3.2 | 14.5 | 0.00 | 0.00 | 0.00 | 79 | 1012.8 |
| 20260502023143 | 12 | 259 | 4.8 | 14.5 | 0.00 | 0.00 | 0.00 | 79 | 1012.9 |
| 20260502023035 | 12 | 259 | 4.8 | 14.5 | 0.00 | 0.00 | 0.00 | 79 | 1012.9 |
| 20260502022934 | 12 | 238 | 4.8 | 14.5 | 0.00 | 0.00 | 0.00 | 78 | 1012.9 |
| 20260502022834 | 12 | 231 | 4.8 | 14.5 | 0.00 | 0.00 | 0.00 | 78 | 1012.8 |
| 20260502022735 | 12 | 231 | 4.8 | 14.5 | 0.00 | 0.00 | 0.00 | 78 | 1012.8 |
| 20260502022635 | 12 | 234 | 4.8 | 14.5 | 0.00 | 0.00 | 0.00 | 78 | 1012.8 |
| 20260502022536 | 12 | 178 | 4.8 | 14.5 | 0.00 | 0.00 | 0.00 | 78 | 1012.8 |
| 20260502022434 | 12 | 148 | 4.8 | 14.5 | 0.00 | 0.00 | 0.00 | 78 | 1012.7 |
| 20260502022336 | 12 | 190 | 3.2 | 14.5 | 0.00 | 0.00 | 0.00 | 78 | 1012.7 |
| 20260502022234 | 12 | 198 | 3.2 | 12.9 | 0.00 | 0.00 | 0.00 | 78 | 1012.7 |
| 20260502022134 | 12 | 163 | 3.2 | 14.5 | 0.00 | 0.00 | 0.00 | 78 | 1012.8 |
| 20260502022035 | 12 | 214 | 4.8 | 16.1 | 0.00 | 0.00 | 0.00 | 78 | 1012.8 |
| 20260502021935 | 12 | 214 | 4.8 | 16.1 | 0.00 | 0.00 | 0.00 | 78 | 1012.8 |
| 20260502021835 | 12 | 236 | 4.8 | 16.1 | 0.00 | 0.00 | 0.00 | 78 | 1012.8 |
| 20260502021736 | 12 | 154 | 4.8 | 16.1 | 0.00 | 0.00 | 0.00 | 77 | 1012.7 |
| 20260502021634 | 12 | 158 | 6.4 | 16.1 | 0.00 | 0.00 | 0.00 | 77 | 1012.9 |
| 20260502021535 | 12 | 232 | 4.8 | 16.1 | 0.00 | 0.00 | 0.00 | 77 | 1013.0 |
| 20260502021434 | 12 | 178 | 4.8 | 16.1 | 0.00 | 0.00 | 0.00 | 77 | 1012.8 |
| 20260502021334 | 12 | 188 | 6.4 | 16.1 | 0.00 | 0.00 | 0.00 | 77 | 1012.8 |
| 20260502021234 | 12 | 175 | 6.4 | 16.1 | 0.00 | 0.00 | 0.00 | 77 | 1012.8 |
| 20260502021135 | 12 | 149 | 6.4 | 16.1 | 0.00 | 0.00 | 0.00 | 77 | 1012.8 |
| 20260502021035 | 12 | 142 | 6.4 | 14.5 | 0.00 | 0.00 | 0.00 | 77 | 1012.8 |
| 20260502020934 | 12 | 200 | 4.8 | 14.5 | 0.00 | 0.00 | 0.00 | 77 | 1012.7 |
| 20260502020834 | 12 | 166 | 4.8 | 14.5 | 0.00 | 0.00 | 0.00 | 77 | 1012.7 |
| 20260502020734 | 12 | 184 | 4.8 | 14.5 | 0.00 | 0.00 | 0.00 | 77 | 1012.7 |
| 20260502020636 | 12 | 207 | 4.8 | 14.5 | 0.00 | 0.00 | 0.00 | 77 | 1012.8 |
| 20260502020535 | 12 | 150 | 4.8 | 12.9 | 0.00 | 0.00 | 0.00 | 76 | 1012.7 |
| 20260502020436 | 12 | 173 | 3.2 | 12.9 | 0.00 | 0.00 | 0.00 | 76 | 1012.7 |
| 20260502020335 | 12 | 198 | 3.2 | 12.9 | 0.00 | 0.00 | 0.00 | 76 | 1012.7 |
| 20260502020234 | 12 | 179 | 3.2 | 12.9 | 0.00 | 0.00 | 0.00 | 76 | 1012.6 |
| 20260502020134 | 12 | 193 | 3.2 | 12.9 | 0.00 | 0.00 | 0.00 | 76 | 1012.6 |
| 20260502020035 | 12 | 211 | 3.2 | 12.9 | 0.00 | 0.00 | 0.00 | 76 | 1012.7 |
| 20260502015934 | 12 | 186 | 3.2 | 12.9 | 0.00 | 0.00 | 0.00 | 76 | 1012.6 |
| 20260502015835 | 12 | 198 | 3.2 | 12.9 | 0.00 | 0.00 | 0.00 | 76 | 1012.6 |
| 20260502015730 | 12 | 186 | 3.2 | 11.3 | 0.00 | 0.00 | 0.00 | 76 | 1012.7 |
| 20260502015630 | 12 | 186 | 3.2 | 14.5 | 0.00 | 0.00 | 0.00 | 76 | 1012.5 |
| 20260502015532 | 12 | 246 | 3.2 | 14.5 | 0.00 | 0.00 | 0.00 | 75 | 1012.5 |
| 20260502015430 | 12 | 246 | 4.8 | 14.5 | 0.00 | 0.00 | 0.00 | 75 | 1012.6 |
| 20260502015332 | 12 | 238 | 4.8 | 14.5 | 0.00 | 0.00 | 0.00 | 75 | 1012.5 |
| 20260502015230 | 12 | 150 | 4.8 | 14.5 | 0.00 | 0.00 | 0.00 | 75 | 1012.5 |
| 20260502015130 | 12 | 176 | 4.8 | 14.5 | 0.00 | 0.00 | 0.00 | 75 | 1012.5 |
| 20260502015031 | 12 | 203 | 4.8 | 14.5 | 0.00 | 0.00 | 0.00 | 75 | 1012.5 |
| 20260502014930 | 12 | 159 | 4.8 | 14.5 | 0.00 | 0.00 | 0.00 | 75 | 1012.5 |
| 20260502014831 | 12 | 194 | 4.8 | 14.5 | 0.00 | 0.00 | 0.00 | 75 | 1012.4 |
| 20260502014730 | 12 | 173 | 4.8 | 14.5 | 0.00 | 0.00 | 0.00 | 75 | 1012.4 |
| 20260502014631 | 12 | 157 | 4.8 | 14.5 | 0.00 | 0.00 | 0.00 | 75 | 1012.3 |
| 20260502014530 | 12 | 194 | 4.8 | 14.5 | 0.00 | 0.00 | 0.00 | 75 | 1012.3 |
| 20260502014434 | 12 | 163 | 4.8 | 14.5 | 0.00 | 0.00 | 0.00 | 75 | 1012.3 |
| 20260502014331 | 12 | 154 | 4.8 | 14.5 | 0.00 | 0.00 | 0.00 | 75 | 1012.4 |
| 20260502014231 | 12 | 145 | 4.8 | 14.5 | 0.00 | 0.00 | 0.00 | 75 | 1012.3 |
| 20260502014130 | 12 | 158 | 4.8 | 14.5 | 0.00 | 0.00 | 0.00 | 75 | 1012.2 |
| 20260502014031 | 12 | 157 | 4.8 | 16.1 | 0.00 | 0.00 | 0.00 | 75 | 1012.3 |
| 20260502013931 | 12 | 163 | 6.4 | 16.1 | 0.00 | 0.00 | 0.00 | 75 | 1012.2 |
| 20260502013830 | 12 | 163 | 6.4 | 16.1 | 0.00 | 0.00 | 0.00 | 75 | 1012.2 |
| 20260502013731 | 12 | 184 | 6.4 | 16.1 | 0.00 | 0.00 | 0.00 | 75 | 1012.2 |
| 20260502013631 | 12 | 175 | 6.4 | 16.1 | 0.00 | 0.00 | 0.00 | 75 | 1012.2 |
| 20260502013533 | 12 | 176 | 6.4 | 16.1 | 0.00 | 0.00 | 0.00 | 75 | 1012.2 |
| 20260502013430 | 12 | 163 | 6.4 | 16.1 | 0.00 | 0.00 | 0.00 | 75 | 1012.2 |
| 20260502013332 | 12 | 161 | 6.4 | 16.1 | 0.00 | 0.00 | 0.00 | 75 | 1012.3 |
| 20260502013231 | 12 | 168 | 6.4 | 16.1 | 0.00 | 0.00 | 0.00 | 75 | 1012.2 |
| 20260502013132 | 12 | 173 | 6.4 | 16.1 | 0.00 | 0.00 | 0.00 | 74 | 1012.2 |
| 20260502013031 | 12 | 202 | 4.8 | 16.1 | 0.00 | 0.00 | 0.00 | 75 | 1012.2 |
| 20260502012931 | 12 | 161 | 4.8 | 14.5 | 0.00 | 0.00 | 0.00 | 75 | 1012.1 |
| 20260502012830 | 12 | 186 | 4.8 | 14.5 | 0.00 | 0.00 | 0.00 | 75 | 1012.2 |
| 20260502012730 | 12 | 171 | 4.8 | 12.9 | 0.00 | 0.00 | 0.00 | 75 | 1012.2 |
| 20260502012630 | 12 | 174 | 3.2 | 12.9 | 0.00 | 0.00 | 0.00 | 75 | 1012.2 |
| 20260502012533 | 12 | 168 | 3.2 | 12.9 | 0.00 | 0.00 | 0.00 | 74 | 1012.3 |
| 20260502012427 | 12 | 175 | 3.2 | 9.7 | 0.00 | 0.00 | 0.00 | 75 | 1012.2 |
| 20260502012327 | 12 | 161 | 3.2 | 11.3 | 0.00 | 0.00 | 0.00 | 74 | 1012.2 |
| 20260502012228 | 12 | 162 | 3.2 | 11.3 | 0.00 | 0.00 | 0.00 | 75 | 1012.2 |
| 20260502012126 | 12 | 162 | 3.2 | 11.3 | 0.00 | 0.00 | 0.00 | 74 | 1012.2 |
| 20260502012026 | 12 | 162 | 3.2 | 11.3 | 0.00 | 0.00 | 0.00 | 74 | 1012.2 |
| 20260502011928 | 12 | 246 | 3.2 | 11.3 | 0.00 | 0.00 | 0.00 | 74 | 1012.3 |
| 20260502011826 | 12 | 166 | 3.2 | 11.3 | 0.00 | 0.00 | 0.00 | 74 | 1012.3 |
| 20260502011727 | 12 | 192 | 3.2 | 11.3 | 0.00 | 0.00 | 0.00 | 74 | 1012.3 |
| 20260502011628 | 12 | 192 | 3.2 | 11.3 | 0.00 | 0.00 | 0.00 | 74 | 1012.3 |
| 20260502011527 | 12 | 192 | 3.2 | 11.3 | 0.00 | 0.00 | 0.00 | 74 | 1012.3 |
| 20260502011426 | 12 | 171 | 3.2 | 11.3 | 0.00 | 0.00 | 0.00 | 74 | 1012.4 |
| 20260502011326 | 12 | 173 | 3.2 | 11.3 | 0.00 | 0.00 | 0.00 | 74 | 1012.3 |
| 20260502011226 | 12 | 174 | 3.2 | 14.5 | 0.00 | 0.00 | 0.00 | 74 | 1012.3 |
| 20260502011127 | 12 | 174 | 3.2 | 14.5 | 0.00 | 0.00 | 0.00 | 74 | 1012.3 |
| 20260502011027 | 12 | 174 | 4.8 | 14.5 | 0.00 | 0.00 | 0.00 | 74 | 1012.3 |
| 20260502010926 | 12 | 196 | 4.8 | 14.5 | 0.00 | 0.00 | 0.00 | 74 | 1012.3 |
| 20260502010827 | 12 | 196 | 4.8 | 14.5 | 0.00 | 0.00 | 0.00 | 74 | 1012.2 |
| 20260502010727 | 12 | 196 | 4.8 | 14.5 | 0.00 | 0.00 | 0.00 | 74 | 1012.3 |
| 20260502010626 | 12 | 205 | 4.8 | 14.5 | 0.00 | 0.00 | 0.00 | 74 | 1012.2 |
| 20260502010526 | 12 | 180 | 4.8 | 14.5 | 0.00 | 0.00 | 0.00 | 74 | 1012.3 |
| 20260502010426 | 12 | 179 | 4.8 | 14.5 | 0.00 | 0.00 | 0.00 | 74 | 1012.2 |
| 20260502010327 | 12 | 177 | 4.8 | 14.5 | 0.00 | 0.00 | 0.00 | 74 | 1012.2 |
| 20260502010226 | 12 | 182 | 4.8 | 11.3 | 0.00 | 0.00 | 0.00 | 74 | 1012.2 |
| 20260502010127 | 12 | 177 | 4.8 | 11.3 | 0.00 | 0.00 | 0.00 | 74 | 1012.3 |
| 20260502010026 | 12 | 178 | 4.8 | 11.3 | 0.00 | 0.00 | 0.00 | 74 | 1012.3 |
| 20260502005927 | 12 | 139 | 4.8 | 11.3 | 0.00 | 0.00 | 0.00 | 74 | 1012.2 |
| 20260502005826 | 12 | 153 | 4.8 | 11.3 | 0.00 | 0.00 | 0.00 | 74 | 1012.3 |
| 20260502005727 | 12 | 205 | 4.8 | 11.3 | 0.00 | 0.00 | 0.00 | 74 | 1012.3 |
| 20260502005627 | 12 | 177 | 4.8 | 11.3 | 0.00 | 0.00 | 0.00 | 74 | 1012.3 |
| 20260502005526 | 12 | 162 | 4.8 | 11.3 | 0.00 | 0.00 | 0.00 | 74 | 1012.3 |
| 20260502005428 | 12 | 170 | 4.8 | 11.3 | 0.00 | 0.00 | 0.00 | 74 | 1012.2 |
| 20260502005326 | 12 | 188 | 4.8 | 11.3 | 0.00 | 0.00 | 0.00 | 73 | 1012.2 |
| 20260502005228 | 12 | 153 | 3.2 | 11.3 | 0.00 | 0.00 | 0.00 | 74 | 1012.1 |
| 20260502005122 | 12 | 175 | 4.8 | 11.3 | 0.00 | 0.00 | 0.00 | 73 | 1012.2 |
| 20260502005020 | 12 | 157 | 4.8 | 14.5 | 0.00 | 0.00 | 0.00 | 73 | 1012.1 |
| 20260502004918 | 12 | 156 | 4.8 | 14.5 | 0.00 | 0.00 | 0.00 | 73 | 1012.1 |